     2.10           OBSERVATION DATA    M (MIXED)           RINEX VERSION / TYPE
teqc 2001Nov28 20030924 20:03:03UTC                         PGM / RUN BY / DATE
JOZ2                                                        MARKER NAME
12204M002                                                   MARKER NUMBER
Automatic IG&GA                                             OBSERVER / AGENCY
12127 ASHTECH Z18 0064                                      REC # / TYPE / VERS
4801 ASH701941.B SNOW                                       ANT # / TYPE
  3664869.6663  1409190.0340  5009654.3300                  APPROX POSITION XYZ
        0.0000        0.0000        0.0000                  ANTENNA: DELTA H/E/N
     1     1                                                WAVELENGTH FACT L1/2
     5    L1    L2    C1    P2    P1                        # / TYPES OF OBSERV
    30.0000                                                 INTERVAL
  2003     9    24    19     0    0.0000000     GPS         TIME OF FIRST OBS
    13                                                      LEAP SECONDS
                                                            END OF HEADER
 03  9 24 19  0  0.0000000  0 12G 5G16G 6G25G21G10G30G17G24R17R18R 3
          .736 3          .539 2  22647206.547    22647210.410    22647206.547
          .317 3          .540 1  25082817.745    25082822.582    25082817.745
          .967 3          .828 2  20544735.847    20544738.480    20544735.847
          .675 3          .132 2  22143110.421    22143112.939    22143110.421
          .548 3          .746 2  23952228.766    23952231.800    23952228.766
          .274 3          .313 2  23961970.765    23961975.315    23961970.765
          .190 3          .746 2  20417236.439    20417238.671    20417236.439
          .747 3          .778 2  21503274.489    21503278.381    21503274.489
          .162 3          .735 2  23096831.081    23096834.973    23096831.081
          .701 3          .372 2  22630765.520    22630768.671    22630765.520
          .710 3          .730 2  19345201.331    19345204.425    19345201.331
          .800 3          .401 2  22456683.264    22456686.014    22456683.264
 03  9 24 19  0 30.0000000  0 12G 5G16G 6G25G21G10G30G17G24R17R18R 3
     94412.468 3     73568.070 2  22665172.124    22665176.159    22665172.124
   -104589.187 3    -81497.640 1  25062914.860    25062917.436    25062914.860
    -26773.970 3    -20862.746 2  20539640.677    20539643.453    20539640.677
    -15997.227 3    -12465.750 2  22140066.166    22140068.570    22140066.166
   -111684.505 3    -87026.489 2  23930977.045    23930980.049    23930977.045
    -75503.750 3    -58833.951 2  23947601.360    23947604.823    23947601.360
     51263.221 3     39945.958 2  20426991.471    20426993.990    20426991.471
    -52794.205 3    -41138.109 2  21493227.756    21493231.820    21493227.756
     76516.311 3     59623.734 2  23111391.363    23111394.368    23111391.363
    104676.708 3     81414.999 2  22650319.681    22650322.144    22650319.681
      4226.572 3      3287.520 2  19345989.214    19345992.594    19345989.214
   -108067.093 3    -84052.375 2  22436544.038    22436548.106    22436544.038
 03  9 24 19  1  0.0000000  0 11G16G 6G25G21G10G30G17G24R17R18R 3
   -209162.416 3   -162983.316 1  25043014.611    25043013.066    25043014.611
    -53169.262 3    -41430.488 2  20534617.642    20534620.675    20534617.642
    -31439.179 3    -24498.440 2  22137127.879    22137130.512    22137127.879
   -223252.408 3   -173962.429 2  23909747.530    23909749.018    23909747.530
   -150640.174 3   -117381.745 2  23933303.989    23933311.086    23933303.989
    102970.337 3     80237.206 2  20436831.064    20436833.496    20436831.064
   -105109.590 3    -81903.315 2  21483272.426    21483276.776    21483272.426
    153402.565 3    119535.100 2  23126022.216    23126025.965    23126022.216
    209446.425 3    162902.539 2  22669892.412    22669894.417    22669892.412
      8896.046 3      6919.329 2  19346860.277    19346863.485    19346860.277
   -215741.380 3   -167798.904 2  22416479.453    22416482.662    22416479.453
 03  9 24 19  1 30.0000000  0 11G16G 6G25G21G10G30G17G24R17R18R 3
   -313716.847 3   -244454.088 2  25023117.298    25023119.988    25023117.298
    -79183.623 3    -61701.403 2  20529667.355    20529670.560    20529667.355
    -46323.657 3    -36096.720 2  22134294.763    22134297.396    22134294.763
   -334699.848 3   -260804.516 2  23888538.989    23888542.052    23888538.989
   -225404.845 3   -175639.833 2  23919077.710    23919083.147    23919077.710
    155121.933 3    120874.801 2  20446755.326    20446757.729    20446755.326
   -156943.061 3   -122293.012 2  21473408.708    21473412.772    21473408.708
    230657.850 3    179734.050 2  23140723.138    23140727.230    23140723.138
    314309.505 3    244462.678 2  22689480.086    22689483.753    22689480.086
     14011.289 3     10897.856 2  19347814.124    19347817.103    19347814.124
   -323016.548 3   -251235.124 2  22396487.858    22396489.749    22396487.858
 03  9 24 19  2  0.0000000  0 11G16G 6G25G21G10G30G17G24R17R18R 3
   -418247.685 3   -325906.633 1  25003224.644    25003228.507    25003224.644
   -104813.721 3    -81672.878 2  20524790.212    20524793.132    20524790.212
    -60646.523 3    -47257.387 2  22131569.371    22131571.975    22131569.371
   -446021.478 3   -347548.567 2  23867353.810    23867356.986    23867353.810
   -299791.627 3   -233603.480 2  23904922.150    23904926.043    23904922.150
    207720.580 3    161860.746 2  20456764.494    20456766.956    20456764.494
   -208289.668 3   -162303.320 2  21463637.897    21463641.302    21463637.897
    308282.877 3    240221.096 2  23155494.163    23155498.227    23155494.163
    419266.833 3    326096.135 2  22709087.210    22709090.533    22709087.210
     19572.954 3     15223.610 2  19348851.109    19348854.375    19348851.109
   -429884.417 3   -334354.484 2  22376574.147    22376577.069    22376574.147
 03  9 24 19  2 30.0000000  0 11G16G 6G25G21G10G30G17G24R17R18R 3
   -522757.439 3                  24983340.118                    24983340.118
   -130063.027 3   -101347.653 2  20519985.591    20519988.138    20519985.591
    -74411.185 3    -57983.087 2  22128950.053    22128952.714    22128950.053
   -557217.861 3   -434195.027 2  23846194.799    23846199.378    23846194.799
   -373800.898 3   -291272.959 2  23890838.158    23890843.624    23890838.158
    260761.871 3    203191.618 2  20466857.894    20466860.127    20466857.894
   -259151.496 3   -201935.896 2  21453959.002    21453963.524    21453959.002
    386271.741 3    300991.641 2  23170335.350    23170339.900    23170335.350
    524314.436 3    407799.799 2  22728710.583    22728714.537    22728710.583
     25576.782 3     19893.264 2  19349970.844    19349973.766    19349970.844
   -536344.676 3   -417156.807 2  22356734.770    22356737.291    22356734.770
 03  9 24 19  3  0.0000000  0 11G16G 6G25G21G10G30G17G24R17R18R 3
   -627242.406 3   -488759.503 2  24963457.262    24963460.667    24963457.262
   -154929.648 3   -120724.220 2  20515253.453    20515256.229    20515253.453
    -87615.107 3    -68271.834 2  22126437.417    22126440.393    22126437.417
   -668285.292 3   -520741.015 2  23825059.252    23825063.288    23825059.252
   -447427.852 3   -348644.556 2  23876827.926    23876830.530    23876827.926
    314246.753 3    244868.141 2  20477035.772    20477038.090    20477035.772
   -309525.236 3   -241188.144 2  21444373.324    21444377.588    21444373.324
    464623.655 3    362045.106 2  23185245.149    23185249.155    23185245.149
    629453.039 3    489574.234 2  22748351.803    22748355.642    22748351.803
     32023.445 3     24907.350 2  19351172.977    19351175.899    19351172.977
   -642390.851 3   -499637.078 2  22336972.727    22336975.133    22336972.727
 03  9 24 19  3 30.0000000  0 12G 5G16G 6G25G21G10G30G17G24R17R18R 3
    665773.919 3    518784.600 2  22773898.554    22773902.303    22773898.554
   -731706.016 2   -570159.448 1  24943573.616    24943577.451    24943573.616
   -179417.556 3   -139805.672 2  20510593.742    20510596.317    20510593.742
   -100262.086 3    -78126.613 2  22124030.826    22124033.430    22124030.826
   -779225.817 3   -607188.100 2  23803947.865    23803950.497    23803947.865
   -520673.678 3   -405719.129 2  23862889.167    23862895.978    23862889.167
    368170.235 3    286886.431 2  20487296.933    20487299.480    20487296.933
   -359413.754 3   -280062.285 2  21434879.877    21434884.055    21434879.877
    543332.158 3    423376.412 2  23200223.032    23200227.010    23200223.032
    734675.967 3    571414.263 2  22768007.868    22768012.280    22768007.868
     38909.069 3     30262.835 2  19352456.952    19352459.874    19352456.952
   -748022.555 3   -581794.996 2  22317287.831    22317291.841    22317287.831
 03  9 24 19  4  0.0000000  0 12G 5G16G 6G25G21G10G30G17G24R17R18R 3
    761808.841 3    593616.970 2  22792174.437    22792177.327    22792174.437
   -836136.402 3   -651533.985 2  24923705.345    24923707.406    24923705.345
   -203516.899 3   -158584.369 2  20506007.619    20506010.080    20506007.619
   -112341.568 3    -87539.190 2  22121732.114    22121735.148    22121732.114
   -890026.965 3   -693526.581 2  23782862.828    23782867.779    23782862.828
   -593525.378 3   -462486.585 2  23849024.455    23849030.494    23849024.455
    422541.192 3    329253.405 2  20497643.460    20497645.950    20497643.460
   -408805.778 3   -318549.551 2  21425480.949    21425485.270    21425480.949
    622404.903 3    484991.548 2  23215270.003    23215274.038    23215270.003
    839993.415 3    653327.806 2  22787682.664    22787685.987    22787682.664
     46243.790 3     35967.616 2  19353824.778    19353827.929    19353824.778
   -853225.491 3   -663619.423 2  22297683.490    22297685.266    22297683.490
 03  9 24 19  4 30.0000000  0 12G 5G16G 6G25G21G10G30G17G24R17R18R 3
    858063.811 3    668620.802 2  22810490.954    22810494.102    22810490.954
   -940545.025 2   -732891.015 1  24903833.662    24903844.452    24903833.662
   -227239.827 3   -177069.744 2  20501493.319    20501495.866    20501493.319
   -123865.413 3    -96518.793 2  22119539.532    22119542.079    22119539.532
  -1000698.859 3   -779764.351 2  23761802.720    23761804.637    23761802.720
   -665992.455 3   -518954.360 2  23835236.522    23835241.473    23835236.522
    477346.514 3    371958.835 2  20508072.640    20508074.844    20508072.640
   -457712.187 3   -356658.419 2  21416174.595    21416178.458    21416174.595
    701826.995 3    546878.916 2  23230383.444    23230388.223    23230383.444
    945390.833 3    735303.578 2  22807372.490    22807375.469    22807372.490
     54014.961 3     42011.867 2  19355274.098    19355277.249    19355274.098
   -958007.897 3   -745116.801 2  22278157.830    22278159.778    22278157.830
 03  9 24 19  5  0.0000000  0 12G 5G16G 6G25G21G10G30G17G24R17R18R 3
    954540.960 3    743797.775 2  22828849.781    22828851.527    22828849.781
  -1044926.584 3   -814227.409 1  24883975.309    24883975.882    24883975.309
   -250582.754 3   -195259.024 2  20497051.440    20497054.102    20497051.440
   -134829.938 3   -105062.573 2  22117452.630    22117455.663    22117452.630
  -1111235.671 3   -865896.850 2  23740769.099    23740771.874    23740769.099
   -738068.134 3   -575117.174 2  23821520.221    23821524.371    23821520.221
    532588.789 3    415004.764 2  20518584.775    20518587.178    20518584.775
   -506128.126 3   -394385.112 2  21406961.549    21406964.811    21406961.549
    781599.756 3    609039.523 2  23245563.578    23245567.871    23245563.578
   1050870.299 3    817343.129 2  22827077.409    22827079.414    22827077.409
     62225.045 3     48397.494 2  19356804.874    19356807.853    19356804.874
  -1062361.526 3   -826280.648 2  22258709.267    22258713.564    22258709.267
 03  9 24 19  5 30.0000000  0 12G 5G16G 6G25G21G10G30G17G24R17R18R 3
   1051245.555 3    819151.980 2  22847250.787    22847256.052    22847250.787
  -1149273.120 2   -895536.187 1  24864115.200    24864120.237    24864115.200
   -273538.987 3   -213146.982 2  20492683.020    20492685.539    20492683.020
   -145227.955 3   -113164.911 2  22115474.128    22115476.961    22115474.128
  -1221628.094 3   -951916.843 2  23719760.802    23719764.179    23719760.802
   -809742.582 3   -630967.319 2  23807882.863    23807886.784    23807882.863
    588273.884 3    458395.742 2  20529181.353    20529183.642    20529181.353
   -554045.339 3   -431723.192 2  21397843.103    21397846.595    21397843.103
    861727.382 3    671476.660 2  23260810.937    23260815.945    23260810.937
   1156438.179 3    899451.469 2  22846799.285    22846800.946    22846799.285
     70878.679 3     55128.113 2  19358418.699    19358421.621    19358418.699
  -1166275.022 3   -907102.181 2  22239345.967    22239348.832    22239345.967
 03  9 24 19  6  0.0000000  0 12G 5G16G 6G25G21G10G30G17G24R17R18R 3
   1148168.002 3    894675.921 2  22865695.565    22865700.001    22865695.565
  -1253591.213 3   -976822.904 1  24844264.555    24844266.100    24844264.555
   -296116.422 3   -230739.780 2  20488386.503    20488389.164    20488386.503
   -155067.097 3   -120831.763 2  22113601.280    22113604.686    22113601.280
  -1331882.119 3  -1037828.968 2  23698780.795    23698785.660    23698780.795
   -881021.470 3   -686509.220 2  23794318.025    23794322.318    23794318.025
    644392.806 3    502124.757 2  20539860.464    20539862.696    20539860.464
   -601470.827 3   -468678.114 2  21388818.007    21388821.756    21388818.007
    942199.157 3    734181.922 2  23276125.279    23276129.028    23276125.279
   1262084.314 3    981620.655 2  22866533.243    22866536.452    22866533.243
     79968.441 3     62197.930 2  19360113.948    19360116.755    19360113.948
  -1269752.389 3   -987584.498 2  22220062.127    22220065.679    22220062.127
 03  9 24 19  6 30.0000000  0 12G 5G16G 6G25G21G10G30G17G24R17R18R 3
   1245316.319 3    970375.877 2  22884181.513    22884185.977    22884181.513
  -1357870.174 3  -1058079.240 1  24824420.262    24824427.702    24824420.262
   -318305.806 3   -248030.196 2  20484164.018    20484166.680    20484164.018
   -164338.165 3   -128055.955 2  22111837.392    22111840.282    22111837.392
  -1441986.314 3  -1123624.364 2  23677827.757    23677830.790    23677827.757
   -951892.416 3   -741733.249 2  23780831.190    23780835.769    23780831.190
    700953.755 3    546198.219 2  20550623.747    20550625.894    20550623.747
   -648393.914 3   -505241.541 2  21379888.752    21379892.988    21379888.752
   1023022.079 3    797160.853 2  23291504.324    23291508.388    23291504.324
   1367817.243 3   1063857.312 2  22886284.497    22886287.705    22886284.497
     89504.638 3     69614.974 2  19361892.140    19361895.234    19361892.140
  -1372779.957 3  -1067716.964 2  22200863.731    22200867.054    22200863.731
 03  9 24 19  7  0.0000000  0 12G 5G16G 6G25G21G10G30G17G24R17R18R 3
   1342680.442 3   1046243.975 2  22902709.766    22902714.316    22902709.766
  -1462117.011 3  -1139310.396 2  24804583.975    24804586.751    24804583.975
   -340115.479 3   -265024.729 2  20480013.803    20480016.378    20480013.803
   -173048.840 3   -134843.489 2  22110179.805    22110182.867    22110179.805
  -1551946.368 3  -1209307.449 2  23656904.409    23656907.357    23656904.409
  -1022360.599 3   -796643.517 2  23767421.622    23767423.597    23767421.622
    757947.450 3    590608.878 2  20561469.123    20561471.584    20561469.123
   -694821.553 3   -541418.898 2  21371053.692    21371057.956    21371053.692
   1104185.067 3    860404.746 2  23306949.938    23306953.286    23306949.938
   1473626.502 3   1146153.380 2  22906049.550    22906054.305    22906049.550
     99477.011 3     77371.278 2  19363751.678    19363754.944    19363751.678
  -1475361.851 3  -1147502.812 2  22181747.062    22181749.297    22181747.062
 03  9 24 19  7 30.0000000  0 12G 5G16G 6G25G21G10G30G17G24R17R18R 3
   1440264.744 3   1122283.677 2  22921279.883    22921283.317    22921279.883
  -1566324.686 3  -1220511.107 1  24784754.057    24784751.453    24784754.057
   -361539.580 3   -281718.818 2  20475936.981    20475939.614    20475936.981
   -181193.077 3   -141189.641 2  22108630.507    22108632.968    22108630.507
  -1661754.837 3  -1294872.417 2  23636006.860    23636010.981    23636006.860
  -1092417.473 3   -851233.193 2  23754090.293    23754096.331    23754090.293
    815378.795 3    635360.569 2  20572398.176    20572400.723    20572398.176
   -740747.006 3   -577204.945 2  21362314.499    21362318.648    21362314.499
   1185691.752 3    923916.466 2  23322460.364    23322464.428    23322460.364
   1579516.945 3   1228512.572 2  22925832.207    22925835.759    22925832.207
    109890.527 3     85470.687 2  19365693.474    19365696.969    19365693.474
  -1577487.595 3  -1226933.883 2  22162716.169    22162719.550    22162716.169
 03  9 24 19  8  0.0000000  0 12G 5G16G 6G25G21G10G30G17G24R17R18R 3
   1538061.476 3   1198488.881 2  22939889.010    22939893.618    22939889.010
  -1670498.105 3  -1301685.166 1  24764926.576    24764930.726    24764926.576
   -382584.445 3   -298117.423 2  20471932.158    20471934.305    20471932.158
   -188776.912 3   -147099.109 2  22107187.015    22107189.505    22107187.015
  -1771415.394 3  -1380322.100 2  23615139.533    23615141.966    23615139.533
  -1162066.590 3   -905505.146 2  23740836.267    23740841.018    23740836.267
    873240.380 3    680447.507 2  20583408.677    20583411.338    20583408.677
   -786175.067 3   -612603.407 2  21353669.884    21353673.748    21353669.884
   1267533.395 3    987689.187 2  23338034.668    23338038.389    23338034.668
   1685480.543 3   1310928.665 2  22945627.664    22945630.013    22945627.664
    120736.895 3     93906.768 2  19367716.237    19367719.503    19367716.237
  -1679159.075 3  -1306011.615 2  22143768.273    22143772.455    22143768.273
 03  9 24 19  8 30.0000000  0 12G 5G16G 6G25G21G10G30G17G24R17R18R 3
   1636075.106 3   1274863.094 2  22958541.109    22958544.830    22958541.109
  -1774629.719 3  -1382826.602 1  24745112.999    24745117.779    24745112.999
   -403244.254 3   -314215.932 2  20468000.546    20468003.379    20468000.546
   -195794.311 3   -152567.200 2  22105851.705    22105853.623    22105851.705
  -1880919.807 3  -1465650.136 2  23594301.710    23594305.888    23594301.710
  -1231298.899 3   -959452.319 2  23727662.362    23727665.538    23727662.362
    931537.241 3    725873.628 2  20594502.183    20594504.787    20594502.183
   -831098.636 3   -647608.769 2  21345121.408    21345125.271    21345121.408
   1349713.255 3   1051725.435 2  23353672.526    23353676.847    23353672.526
   1791522.841 3   1393405.958 2  22965438.036    22965440.500    22965438.036
    132022.658 3    102684.591 2  19369820.816    19369823.795    19369820.816
  -1780366.378 3  -1384728.340 2  22124908.290    22124911.555    22124908.290
 03  9 24 19  9  0.0000000  0 12G 5G16G 6G25G21G10G30G17G24R17R18R 3
   1734296.681 3   1351399.351 2  22977232.300    22977236.793    22977232.300
  -1878725.592 3  -1463940.213 1  24725304.894    24725307.097    24725304.894
   -423526.429 3   -330020.204 2  20464141.153    20464143.586    20464141.153
   -202252.797 3   -157599.785 2  22104622.478    22104624.739    22104622.478
  -1990273.256 3  -1550860.543 2  23573491.798    23573493.973    23573491.798
  -1300118.990 3  -1013078.285 2  23714565.208    23714568.986    23714565.208
    990260.831 3    771632.253 2  20605676.890    20605679.609    20605676.890
   -875523.976 3   -682225.912 2  21336667.470    21336670.961    21336667.470
   1432221.526 3   1116017.608 2  23369373.238    23369377.759    23369373.238
   1897634.679 3   1475937.366 2  22985259.919    22985264.388    22985259.919
    143738.274 3    111796.734 2  19372005.529    19372008.623    19372005.529
  -1881112.732 3  -1463086.515 2  22106134.109    22106138.234    22106134.109
 03  9 24 19  9 30.0000000  0 12G 5G16G 6G25G21G10G30G17G24R17R18R 3
   1832735.234 3   1428104.683 2  22995963.902    22995968.423    22995963.902
  -1982773.870 3  -1545016.687 1  24705504.787    24705504.559    24705504.787
   -443420.314 3   -345521.917 2  20460355.564    20460358.025    20460355.564
   -208141.470 3   -162188.349 2  22103502.112    22103504.373    22103502.112
  -2099462.883 3  -1635943.304 2  23552713.199    23552716.691    23552713.199
  -1368513.488 3  -1066372.623 2  23701550.760    23701554.938    23701550.760
   1049420.588 3    817730.760 2  20616934.827    20616937.374    20616934.827
   -919439.318 3   -716445.649 2  21328310.666    21328314.558    21328310.666
   1515066.147 3   1180571.866 2  23385137.674    23385141.022    23385137.674
   2003825.302 3   1558530.000 2  23005096.009    23005100.593    23005096.009
    155895.205 3    121252.126 2  19374272.381    19374275.704    19374272.381
  -1981382.984 3  -1541074.408 2  22087449.607    22087452.185    22087449.607
 03  9 24 19 10  0.0000000  0 12G 5G16G 6G25G21G10G30G17G24R17R18R 3
   1931383.778 3   1504973.656 2  23014736.923    23014741.502    23014736.923
  -2086778.606 3  -1626059.328 1  24685714.907    24685718.770    24685714.907
   -462931.637 3   -360725.526 2  20456642.559    20456644.934    20456642.559
   -213465.469 3   -166336.905 2  22102489.135    22102491.282    22102489.135
  -2208492.117 3  -1720901.078 2  23531966.389    23531970.853    23531966.389
  -1436485.432 3  -1119337.726 2  23688615.172    23688620.180    23688615.172
   1109009.922 3    864163.997 2  20628274.164    20628276.711    20628274.164
   -962849.160 3   -750271.474 2  21320050.156    21320053.647    21320050.156
   1598238.820 3   1245381.737 2  23400965.337    23400968.486    23400965.337
   2110087.690 3   1641178.493 2  23024946.397    23024952.126    23024946.397
    168486.318 3    131045.215 2  19376620.388    19376623.482    19376620.388
  -2081178.136 3  -1618692.816 2  22068851.310    22068854.289    22068851.310
 03  9 24 19 10 30.0000000  0 12G 5G16G 6G25G21G10G30G17G24R17R18R 3
   2030239.815 3   1582004.282 2  23033548.200    23033552.722    23033548.200
  -2190739.337 3  -1707067.617 2  24665932.107    24665933.538    24665932.107
   -482061.368 3   -375631.797 2  20453002.319    20453004.952    20453002.319
   -218225.732 3   -170046.184 2  22101583.003    22101585.636    22101583.003
  -2317359.512 3  -1805732.728 2  23511248.837    23511252.128    23511248.837
  -1504032.764 3  -1171971.918 2  23675761.297    23675765.761    23675761.297
   1169026.832 3    910930.406 2  20639695.004    20639697.493    20639695.004
  -1005753.322 3   -783703.266 2  21311885.679    21311889.342    21311885.679
   1681736.414 3   1310444.811 2  23416853.923    23416857.185    23416853.923
   2216420.478 3   1723881.693 2  23044810.753    23044816.539    23044810.753
    181510.001 3    141174.758 2  19379049.228    19379052.207    19379049.228
  -2180495.275 3  -1695939.400 2  22050344.673    22050347.766    22050344.673
 03  9 24 19 11  0.0000000  0 12G 5G16G 6G25G21G10G30G17G24R17R18R 3
   2129304.002 3   1659197.138 2  23052398.862    23052403.297    23052398.862
  -2294652.500 3  -1788038.832 2  24646158.358    24646158.473    24646158.358
   -500807.427 3   -390239.104 2  20449434.871    20449437.676    20449434.871
   -222420.057 3   -173314.480 2  22100785.019    22100787.480    22100785.019
  -2426060.719 3  -1890434.915 2  23490564.495    23490567.300    23490564.495
  -1571150.570 3  -1224271.431 2  23662988.761    23662993.568    23662988.761
   1229472.466 3    958030.882 2  20651197.430    20651200.006    20651197.430
  -1048148.418 3   -816738.378 2  21303817.983    21303821.704    21303817.983
   1765558.856 3   1375761.003 2  23432805.184    23432809.562    23432805.184
   2322823.442 3   1806639.525 2  23064688.105    23064693.490    23064688.105
    194969.052 3    151642.911 2  19381559.088    19381562.124    19381559.088
  -2279328.161 3  -1772809.381 2  22031926.894    22031929.014    22031926.894
 03  9 24 19 11 30.0000000  0 12G 5G16G 6G25G21G10G30G17G24R17R18R 3
   2228573.424 3   1736549.900 2  23071289.956    23071295.164    23071289.956
  -2398517.783 3  -1868972.785 1  24626391.740    24626396.033    24626391.740
   -519171.195 3   -404548.520 2  20445940.365    20445943.113    20445940.365
   -226049.846 3   -176142.877 2  22100094.310    22100097.028    22100094.310
  -2534594.805 3  -1975006.863 2  23469909.995    23469914.459    23469909.995
  -1637837.335 3  -1276235.083 2  23650299.653    23650303.373    23650299.653
   1290344.607 3   1005463.714 2  20662780.988    20662783.621    20662780.988
  -1090034.692 3   -849377.004 2  21295847.409    21295851.301    21295847.409
   1849701.946 3   1441327.046 2  23448816.316    23448820.351    23448816.316
   2429294.501 3   1889450.268 2  23084577.894    23084581.732    23084577.894
    208859.630 3    162446.710 2  19384149.405    19384152.671    19384149.405
  -2377673.207 3  -1849299.907 2  22013599.502    22013602.195    22013599.502
 03  9 24 19 12  0.0000000  0 12G 5G16G 6G25G21G10G30G17G24R17R18R 3
   2328044.987 3   1814060.167 2  23090219.278    23090224.171    23090219.278
  -2502335.649 3  -1949869.706 2  24606635.875    24606637.993    24606635.875
   -537154.364 3   -418561.359 2  20442518.265    20442521.041    20442518.265
   -229116.401 3   -178532.390 2  22099510.521    22099513.812    22099510.521
  -2642961.494 3  -2059448.367 2  23449289.771    23449292.461    23449289.771
  -1704092.000 3  -1327862.001 2  23637690.534    23637696.544    23637690.534
   1351640.166 3   1053226.467 2  20674445.189    20674447.650    20674445.189
  -1131412.594 3   -881619.502 2  21287973.540    21287977.232    21287973.540
   1934161.433 3   1507139.641 2  23464888.654    23464892.517    23464888.654
   2535830.767 3   1972311.799 2  23104480.567    23104484.520    23104480.567
    223179.451 3    173584.355 2  19386819.721    19386822.929    19386819.721
  -2475528.555 3  -1925409.568 2  21995363.561    21995367.743    21995363.561
 03  9 24 19 12 30.0000000  0 12G 5G16G 6G25G21G10G30G17G24R17R18R 3
   2427721.032 3   1891729.804 2  23109186.965    23109190.314    23109186.965
  -2606100.625 3  -2030725.521 1  24586889.610    24586891.670    24586889.610
   -554753.057 3   -432274.628 2  20439169.288    20439171.863    20439169.288
   -231616.044 3   -180480.147 2  22099034.694    22099038.157    22099034.694
  -2751154.332 3  -2143754.418 2  23428700.674    23428704.509    23428700.674
  -1769907.851 3  -1379146.982 2  23625166.057    23625170.636    23625166.057
   1413362.069 3   1101321.441 2  20686190.451    20686192.912    20686190.451
  -1172277.486 3   -913462.240 2  21280197.268    21280200.502    21280197.268
   2018938.945 3   1573200.046 2  23481021.738    23481024.772    23481021.738
   2642435.432 3   2055226.461 2  23124394.425    23124399.065    23124394.425
    237932.016 3    185058.572 2  19389570.871    19389574.136    19389570.871
  -2572885.687 3  -2001131.755 2  21977221.023    21977223.945    21977221.023
 03  9 24 19 13  0.0000000  0 11G16G 6G25G21G10G30G17G24R17R18R 3
  -2709808.962 3  -2111537.112 1  24567155.892    24567158.811    24567155.892
   -571964.873 3   -445686.431 2  20435894.088    20435896.607    20435894.088
   -233546.354 3   -181984.284 2  22098667.281    22098670.487    22098667.281
  -2859168.553 3  -2227921.278 2  23408146.875    23408149.851    23408146.875
  -1835279.698 3  -1430086.006 2  23612726.432    23612731.326    23612726.432
   1475511.574 3   1149749.599 2  20698017.303    20698019.736    20698017.303
  -1212625.876 3   -944902.530 2  21272518.907    21272522.541    21272518.907
   2104034.402 3   1639508.198 2  23497214.409    23497218.301    23497214.409
   2749109.085 3   2138194.814 2  23144322.164    23144325.888    23144322.164
    253119.841 3    196871.338 2  19392403.120    19392406.214    19392403.120
  -2669737.873 3  -2076461.173 2  21959172.968    21959175.775    21959172.968
 03  9 24 19 13 30.0000000  0 11G16G 6G25G21G10G30G17G24R17R18R 3
  -2813463.734 3  -2192307.018 1  24547426.997    24547434.810    24547426.997
   -588794.998 3   -458800.794 2  20432691.493    20432693.925    20432691.493
   -234912.131 3   -183048.511 2  22098407.359    22098409.763    22098407.359
  -2967006.982 3  -2311951.160 2  23387626.081    23387628.285    23387626.081
  -1900209.835 3  -1480680.863 2  23600371.744    23600375.607    23600371.744
   1538082.669 3   1198506.282 2  20709924.053    20709926.600    20709924.053
  -1252461.471 3   -975943.223 2  21264938.672    21264942.049    21264938.672
   2189440.457 3   1706058.377 2  23513467.308    23513469.683    23513467.308
   2855845.905 3   2221212.315 2  23164261.926    23164265.650    23164261.926
    268738.019 3    209018.819 2  19395315.662    19395318.642    19395315.662
  -2766086.225 3  -2151398.690 2  21941217.759    21941221.425    21941217.759
 03  9 24 19 14  0.0000000  0 12G 5G16G 6G25G21G10G30G17G24R17R18R 3
   2727959.910 3   2125682.082 2  23166319.391    23166324.914    23166319.391
  -2917064.591 3  -2273034.858 1  24527717.423    24527717.337    24527717.423
   -605244.021 3   -471618.201 2  20429561.393    20429563.912    20429561.393
   -235713.942 3   -183673.293 2  22098254.802    22098257.807    22098254.802
  -3074668.137 3  -2395842.897 2  23367137.699    23367141.248    23367137.699
  -1964695.823 3  -1530929.622 2  23588100.467    23588102.613    23588100.467
   1601073.758 3   1247590.240 2  20721910.904    20721913.451    20721910.904
  -1291783.779 3  -1006583.963 2  21257455.883    21257459.489    21257455.883
   2275153.637 3   1772847.878 2  23529777.695    23529781.386    23529777.695
   2962643.200 3   2304276.808 2  23184211.318    23184216.417    23184211.318
    284782.390 3    221497.769 2  19398307.457    19398310.321    19398307.457
  -2861926.823 3  -2225941.326 2  21923358.415    21923360.936    21923358.415
 03  9 24 19 16  0.0000000  0 12G 5G16G 6G25G21G10G30G17G24R17R18R 3
   3131027.078 3   2439760.261 2  23243022.045    23243026.910    23243022.045
  -3330874.934 3  -2595484.272 2  24448971.574    24448971.775    24448971.574
   -667209.167 3   -519902.683 2  20417769.753    20417772.443    20417769.753
   -233263.540 3   -181763.860 2  22098721.214    22098724.391    22098721.214
  -3503471.137 3  -2729974.861 2  23285539.174    23285542.780    23285539.174
  -2218124.839 3  -1728406.553 2  23539873.864    23539878.128    23539873.864
   1857234.697 3   1447196.159 2  20770656.740    20770659.201    20770656.740
  -1443900.192 3  -1125116.143 2  21228508.453    21228512.860    21228508.453
   2621049.418 3   2042377.104 2  23595599.467    23595604.389    23595599.467
   3390440.887 3   2637008.154 2  23264128.821    23264132.889    23264128.821
    353240.531 3    274743.009 2  19411073.919    19411076.899    19411073.919
  -3240107.229 3  -2520081.404 2  21852883.631    21852885.980    21852883.631
 03  9 24 19 16 30.0000000  0 12G 5G16G 6G25G21G10G30G17G24R17R18R 3
   3232277.456 3   2518656.636 2  23262289.173    23262292.607    23262289.173
  -3434170.270 3  -2675974.075 2  24429312.631    24429315.436    24429312.631
   -681741.480 3   -531226.548 2  20415004.191    20415006.909    20415004.191
   -231235.426 3   -180183.506 2  22099107.163    22099110.196    22099107.163
  -3610199.079 3  -2813139.418 2  23265229.733    23265232.451    23265229.733
  -2280338.124 3  -1776884.374 2  23528035.004    23528037.894    23528035.004
   1922320.102 3   1497912.047 2  20783041.988    20783044.306    20783041.988
  -1480629.675 3  -1153736.502 2  21221519.100    21221523.106    21221519.100
   2708273.828 3   2110344.172 2  23612196.768    23612199.888    23612196.768
   3497538.118 3   2720305.914 2  23284134.773    23284140.159    23284134.773
    371425.104 3    288886.570 2  19414464.814    19414468.080    19414464.814
  -3333334.404 3  -2592591.358 2  21835509.868    21835513.305    21835509.868
 03  9 24 19 17  0.0000000  0 12G 5G16G 6G25G21G10G30G17G24R17R18R 3
   3333713.598 3   2597697.756 2  23281590.882    23281595.891    23281590.882
  -3537404.045 3  -2756415.936 2  24409667.836    24409670.784    24409667.836
   -695895.147 3   -542255.358 2  20412310.585    20412313.590    20412310.585
   -228645.852 3   -178165.653 2  22099599.904    22099602.680    22099599.904
  -3716738.022 3  -2896156.711 2  23244955.942    23244959.834    23244955.942
  -2342093.422 3  -1825005.315 2  23516282.882    23516287.948    23516282.882
   1987816.436 3   1548948.153 2  20795505.775    20795508.122    20795505.775
  -1516842.132 3  -1181953.980 2  21214628.299    21214632.334    21214628.299
   2795788.655 3   2178537.574 2  23628850.764    23628854.914    23628850.764
   3604688.028 3   2803644.647 2  23304150.904    23304157.721    23304150.904
    390030.244 3    303357.242 2  19417934.364    19417937.457    19417934.364
  -3426030.415 3  -2664688.208 2  21818235.857    21818239.351    21818235.857
 03  9 24 19 17 30.0000000  0 12G 5G16G 6G25G21G10G30G17G24R17R18R 3
   3435343.503 3   2676889.862 2  23300931.374    23300935.151    23300931.374
  -3640565.537 3  -2836801.436 2  24390036.618    24390040.796    24390036.618
   -709660.761 3   -552981.788 2  20409691.344    20409693.949    20409691.344
   -225485.807 3   -175703.275 2  22100201.559    22100203.820    22100201.559
  -3823076.106 3  -2979017.501 2  23224720.712    23224723.660    23224720.712
  -2403378.497 3  -1872759.829 2  23504621.108    23504626.345    23504621.108
   2053732.165 3   1600311.061 2  20808049.045    20808051.363    20808049.045
  -1552527.051 3  -1209760.389 2  21207837.672    21207841.478    21207837.672
   2883600.763 3   2246962.605 2  23645561.074    23645564.880    23645561.074
   3711898.119 3   2887030.251 2  23324177.938    23324182.980    23324177.938
    409065.722 3    318162.605 2  19421484.088    19421487.296    19421484.088
  -3518182.081 3  -2736361.655 2  21801065.151    21801066.355    21801065.151
 03  9 24 19 18  0.0000000  0 12G 5G16G 6G25G21G10G30G17G24R17R18R 3
   3537156.153 3   2756224.355 2  23320304.254    23320308.947    23320304.254
  -3743662.380 3  -2917136.625 2  24370420.310    24370421.855    24370420.310
   -723047.663 3   -563413.116 2  20407143.903    20407146.593    20407143.903
   -221764.615 3   -172803.636 2  22100909.163    22100911.968    22100909.163
  -3929220.689 3  -3061727.503 2  23204521.912    23204524.773    23204521.912
  -2464199.888 3  -1920153.077 2  23493045.596    23493051.348    23493045.596
   2120056.586 3   1651992.421 2  20820670.114    20820672.547    20820670.114
  -1587692.891 3  -1237162.316 2  21201145.793    21201149.685    21201145.793
   2971698.305 3   2315610.036 2  23662325.395    23662329.974    23662325.395
   3819158.835 3   2970455.187 2  23344217.685    23344220.722    23344217.685
    428521.084 3    333294.554 2  19425112.092    19425115.358    19425112.092
  -3609794.391 3  -2807615.621 2  21783991.835    21783995.101    21783991.835
 03  9 24 19 18 30.0000000  0 12G 5G16G 6G25G21G10G30G17G24R17R18R 3
   3639158.844 3   2835706.964 2  23339715.649    23339719.599    23339715.649
  -3846684.129 3  -2997413.224 2  24350813.911    24350817.288    24350813.911
   -736047.311 3   -573542.699 2  20404669.994    20404672.856    20404669.994
   -217473.932 3   -169460.237 2  22101726.033    22101728.866    22101726.033
  -4035160.617 3  -3144278.023 2  23184361.351    23184364.070    23184361.351
  -2524546.173 3  -1967176.108 2  23481563.912    23481568.090    23481563.912
   2186797.409 3   1703998.261 2  20833370.601    20833372.805    20833370.601
  -1622330.239 3  -1264152.435 2  21194554.390    21194557.996    21194554.390
   3060087.925 3   2384485.087 2  23679144.544    23679150.325    23679144.544
   3926476.012 3   3053924.016 2  23364264.487    23364266.836    23364264.487
    448406.510 3    348761.006 2  19428820.479    19428823.516    19428820.479
  -3700854.608 3  -2878440.174 2  21767023.015    21767025.650    21767023.015
 03  9 24 19 19  0.0000000  0 12G 5G16G 6G25G21G10G30G17G24R17R18R 3
   3741339.715 3   2915328.361 2  23359159.880    23359165.518    23359159.880
  -3949640.003 3  -3077638.482 2  24331222.758    24331226.679    24331222.758
   -748670.169 3   -583378.668 2  20402267.919    20402270.667    20402267.919
   -212624.227 3   -165681.235 2  22102648.444    22102650.848    22102648.444
  -4140904.105 3  -3226675.473 2  23164239.898    23164243.046    23164239.898
  -2584425.258 3  -2013835.060 2  23470168.407    23470173.301    23470168.407
   2253943.151 3   1756319.617 2  20846147.983    20846150.416    20846147.983
  -1656448.234 3  -1290737.871 2  21188062.015    21188065.908    21188062.015
   3148756.366 3   2453577.390 2  23696018.486    23696022.264    23696018.486
   4033839.288 3   3137428.781 2  23384320.735    23384322.969    23384320.735
    468707.082 3    364550.350 2  19432606.209    19432609.189    19432606.209
  -3791369.042 3  -2948840.228 2  21750154.703    21750158.141    21750154.703
 03  9 24 19 19 30.0000000  0 12G 5G16G 6G25G21G10G30G17G24R17R18R 3
   3843707.244 3   2995095.236 2  23378639.694    23378644.703    23378639.694
  -4052518.056 3  -3157803.143 2  24311645.327    24311649.563    24311645.327
   -760906.384 3   -592913.359 2  20399939.637    20399942.270    20399939.637
   -207205.633 3   -161458.942 2  22103679.894    22103682.412    22103679.894
  -4246438.249 3  -3308909.787 2  23144157.018    23144159.965    23144157.018
  -2643824.591 3  -2060120.193 2  23458864.351    23458870.104    23458864.351
   2321502.452 3   1808963.220 2  20859003.938    20859006.400    20859003.938
  -1690036.386 3  -1316910.444 2  21181670.437    21181674.300    21181670.437
   3237711.323 3   2522892.937 2  23712945.688    23712951.641    23712945.688
   4141258.188 3   3220976.745 2  23404389.158    23404391.965    23404389.158
    489435.492 3    380672.455 2  19436471.652    19436474.688    19436471.652
  -3881323.809 3  -3018804.992 2  21733391.409    21733393.586    21733391.409
 03  9 24 19 20  0.0000000  0 12G 5G16G 6G25G21G10G30G17G24R17R18R 3
   3946257.247 3   3075004.312 2  23398154.748    23398159.270    23398154.748
  -4155319.314 3  -3237907.940 2  24292082.657    24292085.519    24292082.657
   -772758.711 3   -602148.932 2  20397684.104    20397686.766    20397684.104
   -201221.205 3   -156795.746 2  22104818.739    22104821.143    22104818.739
  -4351763.990 3  -3390981.734 2  23124113.971    23124117.291    23124113.971
  -2702743.847 3  -2106031.260 2  23447653.479    23447658.086    23447653.479
   2389471.341 3   1861925.987 2  20871938.007    20871940.640    20871938.007
  -1723096.173 3  -1342671.288 2  21175379.179    21175383.328    21175379.179
   3326947.488 3   2592427.650 2  23729927.231    23729931.524    23729927.231
   4248728.093 3   3304564.382 2  23424464.923    23424467.100    23424464.923
    510587.776 3    397124.230 2  19440416.093    19440419.015    19440416.093
  -3970717.007 3  -3088332.999 2  21716732.755    21716735.791    21716732.755
 03  9 24 19 21  0.0000000  0 12G 5G16G 6G25G21G10G30G17G24R17R18R 3
   4151888.427 3   3235236.320 2  23437285.518    23437288.323    23437285.518
  -4360695.206 3  -3397941.010 2  24253000.259    24253004.752    24253000.259
   -795321.823 3   -619730.546 2  20393390.511    20393393.144    20393390.511
   -187566.311 3   -146155.542 2  22107416.923    22107419.814    22107416.923
  -4561791.102 3  -3554639.060 2  23084146.823    23084148.540    23084146.823
  -2819142.764 3  -2196731.622 2  23425502.584    23425507.992    23425502.584
   2526623.452 3   1968797.746 2  20898036.972    20898040.006    20898036.972
  -1787637.954 3  -1392963.549 2  21163097.359    21163101.194    21163097.359
   3506243.872 3   2732139.152 2  23764046.488    23764050.437    23764046.488
   4463806.575 3   3471847.513 2  23464643.900    23464647.165    23464643.900
    554145.332 3    431002.333 2  19448538.863    19448541.900    19448538.863
  -4147813.792 3  -3226074.811 2  21683730.882    21683733.288    21683730.882
 03  9 24 19 21 30.0000000  0 12G 5G16G 6G25G21G10G30G17G24R17R18R 3
   4254968.087 3   3315558.109 2  23456900.336    23456905.230    23456900.336
  -4463265.393 3  -3477865.683 2  24233482.948    24233486.782    24233482.948
   -806031.510 3   -628075.740 2  20391352.422    20391355.312    20391352.422
   -179894.864 3   -140177.764 2  22108876.504    22108879.451    22108876.504
  -4666486.716 3  -3636219.968 2  23064223.958    23064225.904    23064223.958
  -2876615.845 3  -2241515.743 2  23414566.251    23414571.832    23414566.251
   2595805.699 3   2022705.986 2  20911202.085    20911204.803    20911202.085
  -1819116.782 3  -1417492.475 2  21157107.186    21157110.878    21157107.186
   3596300.995 3   2802313.539 2  23781183.661    23781186.781    23781183.661
   4571414.435 3   3555542.470 2  23484745.626    23484751.928    23484745.626
    576553.188 3    448430.675 2  19452717.794    19452720.486    19452717.794
  -4235507.614 3  -3294281.069 2  21667388.624    21667391.546    21667388.624
 03  9 24 19 22  0.0000000  0 11G16G 6G25G21G10G30G17G24R17R18R 3
  -4565748.473 3  -3557722.603 2  24213979.533    24213981.079    24213979.533
   -816353.725 3   -636119.015 2  20389388.263    20389391.125    20389388.263
   -171654.973 3   -133757.066 2  22110444.629    22110447.549    22110444.629
  -4770960.877 3  -3717628.334 2  23044342.827    23044346.347    23044342.827
  -2933595.268 3  -2285915.245 2  23403723.507    23403727.714    23403723.507
   2665396.481 3   2076932.554 2  20924444.845    20924447.564    20924444.845
  -1850060.607 3  -1441604.526 2  21151218.568    21151222.403    21151218.568
   3686633.245 3   2872702.342 2  23798372.874    23798376.880    23798372.874
   4679073.540 3   3639277.293 2  23504857.086    23504861.097    23504857.086
    599385.091 3    466188.828 2  19456975.389    19456978.197    19456975.389
  -4322619.995 3  -3362035.092 2  21651155.655    21651157.545    21651155.655
 03  9 24 19 22 30.0000000  0 12G 5G16G 6G25G21G10G30G17G24R17R18R 3
   4461659.796 3   3476616.456 2  23496232.279    23496236.601    23496232.279
  -4668149.403 3  -3637515.522 2  24194494.447    24194497.595    24194494.447
   -826295.230 3   -643865.636 2  20387496.432    20387499.150    20387496.432
   -162853.607 3   -126898.853 2  22112119.599    22112122.805    22112119.599
  -4875218.146 3  -3798867.695 2  23024503.553    23024506.988    23024503.553
  -2990084.757 3  -2329932.962 2  23392975.037    23392978.786    23392975.037
   2735388.107 3   2131471.457 2  20937763.668    20937766.329    20937763.668
  -1880474.997 3  -1465304.028 2  21145431.263    21145434.640    21145431.263
   3777231.917 3   2943298.703 2  23815614.268    23815616.701    23815614.268
   4786775.933 3   3723045.756 2  23524976.296    23524979.905    23524976.296
    622631.958 3    484269.725 2  19461310.460    19461313.382    19461310.460
  -4409153.658 3  -3429339.008 2  21635029.659    21635032.295    21635029.659
 03  9 24 19 23  0.0000000  0 12G 5G16G 6G25G21G10G30G17G24R17R18R 3
   4565263.149 3   3557346.329 2  23515948.498    23515951.903    23515948.498
  -4770465.635 3  -3717242.378 2  24175023.377    24175027.870    24175023.377
   -835855.461 3   -651315.147 2  20385677.094    20385679.727    20385677.094
   -153490.281 3   -119602.746 2  22113901.367    22113904.429    22113901.367
  -4979255.304 3  -3879935.539 2  23004706.276    23004708.766    23004706.276
  -3046081.128 3  -2373566.459 2  23382318.194    23382322.258    23382318.194
   2805780.175 3   2186322.411 2  20951158.965    20951161.827    20951158.965
  -1910358.209 3  -1488589.629 2  21139744.694    21139747.985    21139744.694
   3868095.164 3   3014101.266 2  23832903.271    23832908.709    23832903.271
   4894521.093 3   3806847.462 2  23545104.555    23545108.738    23545104.555
    646295.062 3    502674.366 2  19465723.219    19465726.141    19465723.219
  -4495104.446 3  -3496189.587 2  21619013.363    21619015.540    21619013.363
 03  9 24 19 23 30.0000000  0 12G 5G16G 6G25G21G10G30G17G24R17R18R 3
   4669037.529 3   3638209.459 2  23535695.540    23535700.177    23535695.540
  -4872694.585 3  -3796901.289 2  24155570.932    24155572.048    24155570.932
   -845033.258 3   -658466.675 2  20383930.471    20383933.219    20383930.471
   -143564.346 3   -111868.236 2  22115790.222    22115793.169    22115790.222
  -5083068.691 3  -3960829.018 2  22984951.279    22984953.769    22984951.279
  -3101580.665 3  -2416812.800 2  23371756.103    23371762.256    23371756.103
   2876572.629 3   2241485.344 2  20964630.290    20964632.922    20964630.290
  -1939708.653 3  -1511460.086 2  21134159.440    21134162.674    21134159.440
   3959222.027 3   3085109.234 2  23850245.004    23850248.181    23850245.004
   5002310.054 3   3890683.287 2  23565239.481    23565245.210    23565239.481
    670374.544 3    521402.858 2  19470213.574    19470216.439    19470213.574
  -4580466.405 3  -3562582.175 2  21603104.794    21603107.773    21603104.794
 03  9 24 19 24  0.0000000  0 12G 5G16G 6G25G21G10G30G17G24R17R18R 3
   4772979.661 3   3719203.294 2  23555476.284    23555480.118    23555476.284
  -4974836.164 3  -3876492.035 2  24136135.280    24136138.972    24136135.280
   -853830.672 3   -665321.793 2  20382256.269    20382259.016    20382256.269
   -133077.726 3   -103696.842 2  22117786.147    22117788.551    22117786.147
  -5186658.186 3  -4041548.029 2  22965238.597    22965240.915    22965238.597
  -3156582.683 3  -2459671.434 2  23361290.936    23361294.885    23361290.936
   2947762.251 3   2296957.760 2  20978177.415    20978180.048    20978177.415
  -1968527.243 3  -1533916.112 2  21128675.352    21128678.958    21128675.352
   4050608.023 3   3156319.104 2  23867635.428    23867639.492    23867635.428
   5110137.607 3   3974549.071 2  23585383.788    23585389.975    23585383.788
    694868.868 3    540454.010 2  19474781.307    19474784.229    19474781.307
  -4665237.853 3  -3628515.492 2  21587308.193    21587310.772    21587308.193
 03  9 24 19 24 30.0000000  0 12G 5G16G 6G25G21G10G30G17G24R17R18R 3
   4877087.858 3   3800326.515 2  23575287.024    23575290.172    23575287.024
  -5076888.776 3  -3956013.442 2  24116713.815    24116717.134    24116713.815
   -862247.745 3   -671880.539 2  20380654.589    20380657.393    20380654.589
   -122031.054 3    -95089.020 2  22119888.237    22119890.441    22119888.237
  -5290021.337 3  -4122090.651 2  22945569.504    22945571.564    22945569.504
  -3211084.747 3  -2502140.519 2  23350919.131    23350921.707    23350919.131
   3019347.842 3   2352738.717 2  20991799.725    20991802.129    20991799.725
  -1996813.318 3  -1555957.186 2  21123292.544    21123296.265    21123292.544
   4142250.480 3   3227728.810 2  23885075.557    23885077.217    23885075.557
   5218005.122 3   4058445.948 2  23605532.923    23605538.652    23605532.923
    719777.907 3    559827.706 2  19479426.258    19479429.180    19479426.258
  -4749414.240 3  -3693985.965 2  21571622.482    21571624.143    21571622.482
 03  9 24 19 25  0.0000000  0 12G 5G16G 6G25G21G10G30G17G24R17R18R 3
   4981364.278 3   3881580.823 2  23595129.862    23595133.926    23595129.862
  -5178847.052 3  -4035461.484 2  24097310.514    24097312.603    24097310.514
   -870281.116 3   -678140.291 2  20379126.079    20379128.770    20379126.079
   -110421.716 3    -86042.766 2  22122097.413    22122099.445    22122097.413
  -5393152.507 3  -4202452.551 2  22925943.570    22925946.518    22925943.570
  -3265080.947 3  -2544215.445 2  23340644.117    23340646.521    23340644.117
   3091331.616 3   2408829.964 2  21005497.924    21005500.614    21005497.924
  -2024562.830 3  -1577580.165 2  21118011.898    21118015.676    21118011.898
   4234150.453 3   3299339.196 2  23902563.096    23902567.131    23902563.096
   5325914.211 3   4142375.187 2  23625690.477    23625697.180    23625690.477
    745102.912 3    579524.929 2  19484148.749    19484152.072    19484148.749
  -4832988.420 3  -3758988.040 2  21556047.538    21556050.116    21556047.538
 03  9 24 19 25 30.0000000  0 12G 5G16G 6G25G21G10G30G17G24R17R18R 3
   5085805.606 3   3962963.688 2  23615004.195    23615007.029    23615004.195
  -5280711.251 3  -4114836.081 2  24077926.844    24077931.853    24077926.844
   -877932.660 3   -684102.522 2  20377669.965    20377672.684    20377669.965
    -98252.002 3    -76559.858 2  22124413.457    22124415.260    22124413.457
  -5496051.284 3  -4282633.334 2  22906363.432    22906365.436    22906363.432
  -3318570.426 3  -2585895.526 2  23330464.474    23330467.536    23330464.474
   3163710.545 3   2465229.105 2  21019271.118    21019273.236    21019271.118
  -2051776.801 3  -1598785.838 2  21112833.364    21112837.113    21112833.364
   4326304.101 3   3371147.240 2  23920098.857    23920102.721    23920098.857
   5433862.109 3   4226334.557 2  23645856.794    23645862.638    23645856.794
    770841.226 3    599543.616 2  19488948.772    19488951.637    19488948.772
  -4915958.478 3  -3823520.257 2  21540586.267    21540588.158    21540586.267
 03  9 24 19 26  0.0000000  0 12G 5G16G 6G25G21G10G30G17G24R17R18R 3
   5190407.318 3   4044471.477 2  23634908.153    23634912.017    23634908.153
  -5382482.470 3  -4194138.275 2  24058562.367    24058564.484    24058562.367
   -885205.369 3   -689769.554 2  20376286.179    20376288.754    20376286.179
    -85524.687 3    -66642.462 2  22126834.904    22126837.308    22126834.904
  -5598718.069 3  -4362633.367 2  22886825.952    22886828.728    22886825.952
  -3371553.716 3  -2627181.173 2  23320382.400    23320386.006    23320382.400
   3236480.396 3   2521932.868 2  21033118.819    21033121.337    21033118.819
  -2078457.557 3  -1619576.033 2  21107756.238    21107759.729    21107756.238
   4418705.927 3   3443148.686 2  23937683.556    23937686.876    23937683.556
   5541845.060 3   4310321.261 2  23666031.809    23666033.413    23666031.809
    796991.128 3    619882.439 2  19493825.230    19493828.209    19493825.230
  -4998323.426 3  -3887581.825 2  21525237.763    21525239.424    21525237.763
 03  9 24 19 26 30.0000000  0 10G 5G16G 6G25G21G10G24R17R18R 3
   5295171.552 3   4126105.878 2  23654844.744    23654850.038    23654844.744
  -5484155.495 3  -4273364.013 2  24039212.438    24039214.871    24039212.438
   -892095.885 3   -695138.788 2  20374974.937    20374977.370    20374974.937
    -72236.911 3    -56288.336 2  22129363.635    22129365.896    22129363.635
  -5701147.215 3  -4442448.217 2  22867334.437    22867335.868    22867334.437
  -3424025.161 3  -2668067.965 2  23310396.832    23310401.211    23310396.832
   4511357.106 3   3515344.433 2  23955314.545    23955316.692    23955314.545
   5649865.703 3   4394337.261 2  23686208.397    23686214.011    23686208.397
    823554.758 3    640543.051 2  19498778.871    19498781.907    19498778.871
  -5080075.696 3  -3951166.877 2  21510002.557    21510004.677    21510002.557
 03  9 24 19 27  0.0000000  0  9G 5G16G 6G25G21G10R17R18R 3
   5400100.215 3   4207868.463 2  23674810.296    23674815.247    23674810.296
  -5585725.066 3  -4352509.028 2  24019886.400    24019889.548    24019886.400
   -898600.845 3   -700207.582 2  20373736.887    20373739.520    20373736.887
    -58385.868 3    -45495.311 2  22131999.662    22132001.465    22131999.662
  -5803333.008 3  -4522073.458 2  22847888.629    22847891.147    22847888.629
  -3475978.742 3  -2708551.238 2  23300509.955    23300514.333    23300509.955
   5757925.975 3   4478384.064 2  23706396.500    23706399.766    23706396.500
    850534.926 3    661527.631 2  19503809.950    19503813.159    19503809.950
  -5161207.629 3  -4014269.442 2  21494883.782    21494886.016    21494883.782
 03  9 24 19 28  0.0000000  0 12G 5G16G 6G25G21G10G30G17G24R17R18R 3
   5610421.736 3   4371755.262 2  23714833.661    23714838.326    23714833.661
  -5788569.808 3  -4510569.791 2  23981286.311    23981289.888    23981286.311
   -910477.833 3   -709462.348 2  20371476.829    20371479.462    20371476.829
    -29019.366 3    -22612.305 2  22137587.359    22137589.649    22137587.359
  -6006988.332 3  -4680765.767 2  22809134.020    22809136.996    22809134.020
  -3578345.340 3  -2788317.337 2  23281031.369    23281035.747    23281031.369
   3531476.000 3   2751799.476 2  21089254.712    21089257.116    21089254.712
  -2179801.731 3  -1698545.458 2  21088471.037    21088475.014    21088471.037
   4790779.880 3   3733076.528 2  24008485.745    24008489.351    24008485.745
   5974138.737 3   4646549.447 2  23746786.524    23746791.680    23746786.524
    905716.399 3    704446.545 2  19514100.289    19514103.554    19514100.289
  -5321620.297 3  -4139034.748 2  21464990.405    21464993.442    21464990.405
 03  9 24 19 28 30.0000000  0 12G 5G16G 6G25G21G10G30G17G24R17R18R 3
   5715816.720 3   4453881.196 2  23734890.797    23734896.549    23734890.797
  -5889836.282 3  -4589478.649 2  23962013.858    23962016.978    23962013.858
   -915844.840 3   -713644.425 2  20370455.622    20370458.226    20370455.622
    -13499.646 3    -10518.998 2  22140540.848    22140543.338    22140540.848
  -6108448.126 3  -4759825.286 2  22789827.887    22789830.262    22789827.887
  -3628748.571 3  -2827592.530 2  23271438.528    23271443.479    23271438.528
   3606194.799 3   2810021.883 2  21103473.183    21103475.616    21103473.183
  -2203793.004 3  -1717239.949 2  21083905.811    21083909.303    21083905.811
   4884400.304 3   3806027.530 2  24026301.289    24026304.323    24026301.289
   6082295.531 3   4730671.306 2  23766990.012    23766995.169    23766990.012
    933921.636 3    726383.954 2  19519360.051    19519363.087    19519360.051
  -5400887.735 3  -4200687.167 2  21450218.634    21450221.212    21450218.634
 03  9 24 19 29  0.0000000  0 12G 5G16G 6G25G21G10G30G17G24R17R18R 3
   5821368.303 3   4536129.154 2  23754975.847    23754981.857    23754975.847
  -5990993.893 3  -4668302.739 2  23942765.415    23942765.157    23942765.415
   -920828.619 3   -717527.880 2  20369507.108    20369509.683    20369507.108
      2579.235 3      2010.017 2  22143600.330    22143603.020    22143600.330
  -6209657.161 3  -4838689.400 2  22770568.329    22770571.248    22770568.329
  -3678626.300 3  -2866458.225 2  23261947.812    23261951.103    23261947.812
   3681301.795 3   2868546.789 2  21117765.529    21117768.391    21117765.529
  -2227242.056 3  -1735511.918 2  21079443.764    21079447.083    21079443.764
   4978259.758 3   3879164.796 2  24044161.857    24044164.318    24044161.857
   6190487.193 3   4814820.378 2  23787203.002    23787205.637    23787203.002
    962538.627 3    748641.609 2  19524696.528    19524699.851    19524696.528
  -5479521.990 3  -4261847.089 2  21435565.300    21435567.993    21435565.300
 03  9 24 19 29 30.0000000  0 12G 5G16G 6G25G21G10G30G17G24R17R18R 3
   5927072.465 3   4618495.976 2  23775091.255    23775096.063    23775091.255
  -6092043.533 3  -4747042.663 2  23923537.531    23923539.420    23923537.531
   -925431.828 3   -721114.791 2  20368631.121    20368633.840    20368631.121
     19214.210 3     14972.339 2  22146765.801    22146769.120    22146765.801
  -6310615.974 3  -4917358.547 2  22751356.105    22751358.194    22751356.105
  -3727978.597 3  -2904914.498 2  23252556.492    23252559.182    23252556.492
   3756793.382 3   2927371.359 2  21132131.180    21132134.070    21132131.180
  -2250151.198 3  -1753363.183 2  21075084.042    21075087.734    21075084.042
   5072353.371 3   3952484.506 2  24062066.240    24062068.501    24062066.240
   6298709.063 3   4898992.837 2  23807417.465    23807423.538    23807417.465
    991562.918 3    771216.068 2  19530108.713    19530112.323    19530108.713
  -5557521.308 3  -4322513.164 2  21421030.156    21421032.047    21421030.156
 03  9 24 19 30  0.0000000  0 12G 5G16G 6G25G21G10G30G17G24R17R18R 3
   6032927.578 3   4700980.451 2  23795235.535    23795240.114    23795235.535
  -6192983.449 3  -4825697.196 2  23904327.809    23904330.241    23904327.809
   -929654.739 3   -724405.363 2  20367827.637    20367830.299    20367827.637
     36404.515 3     28367.386 2  22150037.537    22150040.141    22150037.537
  -6411322.040 3  -4995830.757 2  22732192.146    22732194.750    22732192.146
  -3776803.548 3  -2942959.889 2  23243265.922    23243267.038    23243265.922
   3832667.982 3   2986494.392 2  21146569.667    21146572.243    21146569.667
  -2272519.603 3  -1770793.092 2  21070827.148    21070830.697    21070827.148
   5166678.600 3   4025984.741 2  24080016.205    24080020.183    24080016.205
   6406961.149 3   4983188.857 2  23827641.170    23827646.556    23827641.170
   1020994.279 3    794107.118 2  19535597.432    19535600.755    19535597.432
  -5634882.337 3  -4382682.809 2  21406613.293    21406615.986    21406613.293
 03  9 24 19 30 30.0000000  0 12G 5G16G 6G25G21G10G30G17G24R17R18R 3
   6138928.154 3   4783578.248 2  23815407.771    23815411.978    23815407.771
  -6293815.801 3  -4904267.746 2  23885140.621    23885141.565    23885140.621
   -933501.506 3   -727402.838 2  20367095.453    20367098.258    20367095.453
     54145.289 3     42191.385 2  22153413.229    22153415.834    22153413.229
  -6511777.005 3  -5074107.278 2  22713076.163    22713078.968    22713076.163
  -3825102.819 3  -2980595.643 2  23234074.882    23234079.060    23234074.882
   3908920.279 3   3045911.730 2  21161080.157    21161082.504    21161080.157
  -2294351.325 3  -1787804.799 2  21066672.483    21066676.432    21066672.483
   5261229.006 3   4099660.406 2  24098007.198    24098011.520    24098007.198
   6515238.501 3   5067404.616 2  23847868.860    23847872.756    23847868.860
   1050827.869 3    817311.033 2  19541160.940    19541163.747    19541160.940
  -5711605.534 3  -4442356.349 2  21392316.399    21392318.518    21392316.399
 03  9 24 19 31  0.0000000  0 12G 5G16G 6G25G21G10G30G17G24R17R18R 3
   6245076.804 3   4866291.439 2  23835608.215    23835610.819    23835608.215
  -6394534.634 3  -4982749.946 2  23865974.282    23865977.173    23865974.282
   -936968.072 3   -730104.041 2  20366435.730    20366438.420    20366435.730
     72440.046 3     56447.047 2  22156894.511    22156897.029    22156894.511
  -6611974.845 3  -5152183.462 2  22694009.968    22694012.201    22694009.968
  -3872869.803 3  -3017816.610 2  23224984.769    23224989.119    23224984.769
   3985553.260 3   3105625.710 2  21175662.753    21175665.100    21175662.753
  -2315641.077 3  -1804394.199 2  21062621.190    21062625.054    21062621.190
   5356006.320 3   4173512.883 2  24116044.808    24116048.385    24116044.808
   6623543.677 3   5151641.865 2  23868100.108    23868106.124    23868100.108
   1081067.948 3    840831.100 2  19546800.129    19546802.994    19546800.129
  -5787682.660 3  -4501527.392 2  21378139.091    21378141.727    21378139.091
 03  9 24 19 31 30.0000000  0 12G 5G16G 6G25G21G10G30G17G24R17R18R 3
   6351378.302 3   4949123.751 2  23855834.859    23855838.122    23855834.859
  -6495131.913 3  -5061137.353 2  23846830.003    23846832.865    23846830.003
   -940048.402 3   -732504.290 2  20365849.626    20365852.345    20365849.626
     91294.477 3     71138.820 2  22160482.522    22160485.040    22160482.522
  -6711907.180 3  -5230052.755 2  22674993.203    22674995.521    22674993.203
  -3920096.281 3  -3054616.401 2  23215997.927    23216002.706    23215997.927
   4062571.483 3   3165639.877 2  21190318.949    21190321.382    21190318.949
  -2336382.512 3  -1820556.348 2  21058674.235    21058678.156    21058674.235
   5451014.444 3   4247545.239 2  24134122.906    24134125.853    24134122.906
   6731882.183 3   5235905.064 2  23888340.305    23888345.003    23888340.305
   1111719.662 3    864671.324 2  19552516.034    19552519.013    19552516.034
  -5863103.970 3  -4560188.362 2  21364084.104    21364086.453    21364084.104
 03  9 24 19 32  0.0000000  0 12G 5G16G 6G25G21G10G30G17G24R17R18R 3
   6457819.934 3   5032065.180 2  23876090.057    23876095.008    23876090.057
  -6595616.925 3  -5139437.382 2  23827710.033    23827712.609    23827710.033
   -942753.781 3   -734612.375 2  20365334.878    20365337.539    20365334.878
    110696.523 3     86257.306 2  22164174.773    22164177.291    22164174.773
  -6811582.563 3  -5307721.826 2  22656025.083    22656027.659    22656025.083
  -3966790.645 3  -3091001.589 2  23207111.682    23207115.345    23207111.682
   4139962.733 3   3225944.715 2  21205045.802    21205048.435    21205045.802
  -2356586.307 3  -1836299.554 2  21054829.992    21054833.512    21054829.992
   5546239.636 3   4321746.721 2  24152245.282    24152246.999    24152245.282
   6840242.878 3   5320185.598 2  23908580.704    23908585.230    23908580.704
   1142770.864 3    888822.261 2  19558306.665    19558309.530    19558306.665
  -5937877.299 3  -4618345.333 2  21350150.355    21350151.902    21350150.355
 03  9 24 19 32 30.0000000  0 12G 5G16G 6G25G21G10G30G17G24R17R18R 3
   6564401.367 3   5115115.643 2  23896371.359    23896377.941    23896371.359
  -6695986.704 3  -5217647.585 2  23808610.019    23808611.278    23808610.019
   -945083.116 3   -736427.429 2  20364891.623    20364894.285    20364891.623
    130646.819 3    101803.005 2  22167971.037    22167973.927    22167971.037
  -6910997.735 3  -5385188.138 2  22637107.076    22637109.423    22637107.076
  -4012949.656 3  -3126969.605 2  23198327.031    23198330.808    23198327.031
   4217726.694 3   3286539.992 2  21219843.835    21219846.440    21219843.835
  -2376250.663 3  -1851622.417 2  21051087.923    21051091.672    21051087.923
   5641681.070 3   4396116.712 2  24170405.028    24170408.891    24170405.028
   6948624.394 3   5404482.214 2  23928828.941    23928834.155    23928828.941
   1174221.410 3    913283.807 2  19564171.431    19564174.640    19564171.431
  -6011997.774 3  -4675994.542 2  21336337.133    21336339.940    21336337.133
 03  9 24 19 33  0.0000000  0 12G 5G16G 6G25G21G10G30G17G24R17R18R 3
   6671129.878 3   5198280.653 2  23916681.357    23916686.709    23916681.357
  -6796230.356 3  -5295759.449 2  23789532.448    23789536.483    23789532.448
   -947027.765 3   -737942.731 2  20364521.536    20364524.140    20364521.536
    151153.097 3    117781.932 2  22171873.352    22171875.841    22171873.352
  -7010141.531 3  -5462442.984 2  22618239.503    22618243.538    22618239.503
  -4058562.662 3  -3162512.154 2  23189648.687    23189653.323    23189648.687
   4295870.679 3   3347431.357 2  21234714.144    21234717.005    21234714.144
  -2395366.774 3  -1866518.075 2  21047449.948    21047453.898    21047449.948
   5737345.033 3   4470660.117 2  24188611.197    24188613.000    24188611.197
   7057036.486 3   5488802.646 2  23949079.617    23949085.576    23949079.617
   1206081.394 3    938063.797 2  19570112.884    19570115.749    19570112.884
  -6085452.620 3  -4733126.034 2  21322648.543    21322651.178    21322648.543
 03  9 24 19 33 30.0000000  0 10G 5G16G 6G25G21G10G24R17R18R 3
   6777997.255 3   5281553.905 2  23937017.876    23937021.997    23937017.876
  -6896352.978 3  -5373777.077 2  23770480.600    23770481.001    23770480.600
   -948594.610 3   -739163.644 2  20364223.443    20364226.276    20364223.443
    172207.942 3    134188.314 2  22175879.437    22175882.699    22175879.437
  -7109018.493 3  -5539489.892 2  22599425.224    22599427.542    22599425.224
  -4103633.916 3  -3197632.542 2  23181072.634    23181076.040    23181072.634
   5833222.565 3   4545369.896 2  24206855.390    24206857.908    24206855.390
   7165470.495 3   5573140.174 2  23969337.089    23969341.787    23969337.089
   1238343.261 3    963156.348 2  19576129.052    19576132.203    19576129.052
  -6158244.987 3  -4789742.248 2  21309083.801    21309086.150    21309083.801
 03  9 24 19 34  0.0000000  0 12G 5G16G 6G25G21G10G30G17G24R17R18R 3
   6885001.723 3   5364933.987 2  23957380.140    23957381.771    23957380.140
  -6996352.913 3  -5451699.069 2  23751450.056    23751455.579    23751450.056
   -949784.417 3   -740090.754 2  20363996.992    20363999.625    20363996.992
    193810.311 3    151021.343 2  22179990.430    22179993.206    22179990.430
  -7207626.505 3  -5616327.258 2  22580659.702    22580661.648    22580659.702
  -4148161.628 3  -3232329.411 2  23172598.665    23172603.130    23172598.665
   4453273.364 3   3470082.733 2  21264666.954    21264669.358    21264666.954
  -2431971.912 3  -1895041.515 2  21040484.413    21040488.019    21040484.413
   5929310.777 3   4620243.851 2  24225139.634    24225143.269    24225139.634
   7273925.644 3   5657494.085 2  23989598.335    23989602.689    23989598.335
   1271002.698 3    988558.150 2  19582219.217    19582222.254    19582219.217
  -6230372.046 3  -4845841.022 2  21295643.376    21295645.324    21295643.376
 03  9 24 19 35  0.0000000  0 12G 5G16G 6G25G21G10G30G17G24R17R18R 3
   7099421.110 3   5532013.916 2  23998183.661    23998188.068    23998183.661
  -7195971.807 3  -5607246.176 2  23713465.387    23713467.218    23713465.387
   -951027.694 3   -741059.539 2  20363760.179    20363762.869    20363760.179
    238658.995 3    185968.384 2  22188524.827    22188527.689    22188524.827
  -7404022.179 3  -5769362.735 2  22543286.811    22543289.644    22543286.811
  -4235572.230 3  -3300441.480 2  23155964.947    23155967.466    23155964.947
   4612157.340 3   3593888.367 2  21294901.715    21294904.091    21294901.715
  -2466401.460 3  -1921869.714 2  21033932.831    21033936.036    21033932.831
   6122115.929 3   4770481.684 2  24261829.305    24261832.682    24261829.305
   7490901.443 3   5826252.896 2  24030130.744    24030135.671    24030130.744
   1337522.958 3   1040296.114 2  19594624.338    19594627.146    19594624.338
  -6372610.424 3  -4956470.766 2  21269137.123    21269138.785    21269137.123
 03  9 24 19 35 30.0000000  0 12G 5G16G 6G25G21G10G30G17G24R17R18R 3
   7206830.232 3   5615709.296 2  24018621.663    24018624.353    24018621.663
  -7295589.844 3  -5684870.546 2  23694508.136    23694511.027    23694508.136
   -951084.294 3   -741103.628 2  20363749.359    20363752.106    20363749.359
    261901.250 3    204079.236 2  22192947.750    22192950.926    22192947.750
  -7501807.924 3  -5845559.365 2  22524678.818    22524680.964    22524678.818
  -4278453.914 3  -3333855.733 2  23147805.570    23147808.747    23147805.570
   4692149.288 3   3656219.735 2  21310123.895    21310126.214    21310123.895
  -2482801.396 3  -1934648.880 2  21030811.936    21030815.513    21030811.936
   6218825.446 3   4845839.770 2  24280233.336    24280236.255    24280233.336
   7599417.820 3   5910654.462 2  24050402.784    24050408.054    24050402.784
   1371380.103 3   1066629.462 2  19600937.994    19600941.088    19600937.994
  -6442717.349 3  -5010998.333 2  21256071.866    21256073.871    21256071.866
 03  9 24 19 36  0.0000000  0 12G 5G16G 6G25G21G10G30G17G24R17R18R 3
   7314374.234 3   5699509.794 2  24039087.755    24039090.616    24039087.755
  -7395073.701 3  -5762390.384 2  23675577.166    23675576.794    23675577.166
   -950760.428 3   -740851.255 2  20363811.136    20363813.826    20363811.136
    285691.526 3    222617.124 2  22197474.621    22197477.826    22197474.621
  -7599312.113 3  -5921536.607 2  22506125.247    22506126.878    22506125.247
  -4320779.906 3  -3366836.991 2  23139750.691    23139754.841    23139750.691
   4772509.872 3   3718838.335 2  21325416.005    21325418.724    21325416.005
  -2498653.967 3  -1947001.522 2  21027795.042    21027798.648    21027795.042
   6315739.988 3   4921357.637 2  24298674.940    24298679.004    24298674.940
   7707955.386 3   5995072.492 2  24070678.314    24070684.100    24070678.314
   1405638.296 3   1093274.711 2  19607326.467    19607329.503    19607326.467
  -6512140.699 3  -5064994.234 2  21243134.681    21243137.259    21243134.681
 03  9 24 19 36 30.0000000  0 12G 5G16G 6G25G21G10G30G17G24R17R18R 3
   7422046.186 3   5783409.956 2  24059575.100    24059581.167    24059575.100
  -7494426.966 3  -5839808.491 2  23656671.327    23656674.418    23656671.327
   -950061.694 3   -740306.787 2  20363943.970    20363946.775    20363943.970
    310023.295 3    241576.954 2  22202104.797    22202107.716    22202104.797
  -7696537.783 3  -5997296.830 2  22487623.303    22487625.907    22487623.303
  -4362553.394 3  -3399387.706 2  23131801.255    23131805.977    23131801.255
   4853232.240 3   3781738.860 2  21340776.839    21340779.415    21340776.839
  -2513964.120 3  -1958931.498 2  21024881.651    21024885.372    21024881.651
   6412852.360 3   4997029.592 2  24317155.523    24317158.843    24317155.523
   7816507.624 3   6079501.911 2  24090956.997    24090962.840    24090956.997
   1440290.886 3   1120226.738 2  19613788.685    19613791.722    19613788.685
  -6580882.480 3  -5118460.024 2  21230325.186    21230326.790    21230325.186
 03  9 24 19 37 30.0000000  0 12G 5G16G 6G25G21G10G30G17G24R17R18R 3
   7637784.168 3   5951517.413 2  24100630.541    24100634.175    24100630.541
  -7692717.469 3  -5994320.405 2  23618937.220    23618939.109    23618937.220
   -947523.973 3   -738329.316 2  20364427.052    20364429.571    20364427.052
    360324.358 3    280772.606 2  22211676.827    22211679.603    22211676.827
  -7890128.720 3  -6148146.783 2  22450783.438    22450785.985    22450783.438
  -4444418.590 3  -3463178.649 2  23116220.751    23116226.332    23116220.751
   5015773.066 3   3908393.998 2  21371707.110    21371710.114    21371707.110
  -2542939.752 3  -1981509.870 2  21019367.920    21019371.497    21019367.920
   6607677.227 3   5148841.207 2  24354228.740    24354231.659    24354228.740
   8033673.031 3   6248408.199 2  24131525.039    24131530.596    24131525.039
   1510794.065 3   1175062.567 2  19626935.862    19626938.898    19626935.862
  -6716292.700 3  -5223779.006 2  21205090.691    21205093.327    21205090.691
 03  9 24 19 40  0.0000000  0 12G 5G16G 6G25G21G10G30G17G24R17R18R 3
   8179302.042 3   6373479.183 2  24203676.942    24203680.348    24203676.942
  -8185981.715 3  -6378681.825 2  23525071.380    23525073.069    23525071.380
   -934592.869 3   -728253.086 2  20366887.405    20366890.153    20366887.405
    495525.821 3    386124.428 2  22237404.353    22237407.243    22237404.353
  -8369037.904 3  -6521322.491 2  22359650.440    22359652.444    22359650.440
  -4639233.364 3  -3614982.151 2  23079150.220    23079155.371    23079150.220
   5428397.000 3   4229918.982 2  21450227.229    21450230.206    21450227.229
  -2605829.750 3  -2030515.005 2  21007400.104    21007403.739    21007400.104
   7098074.926 3   5530969.425 2  24447546.979    24447551.530    24447546.979
   8576835.078 3   6670867.342 2  24232993.782    24232996.990    24232993.782
   1693942.826 3   1317511.650 2  19661089.993    19661092.743    19661089.993
  -7042618.464 3  -5477587.750 2  21144279.762    21144281.481    21144279.762
 03  9 24 19 41  0.0000000  0 12G 5G16G 6G25G21G10G30G17G24R17R18R 3
   8396747.493 3   6542917.055 2  24245057.236    24245061.901    24245057.236
  -8382261.121 3  -6531626.779 2  23487720.792    23487722.080    23487720.792
   -926788.827 3   -722172.008 2  20368372.515    20368375.520    20368372.515
    553365.337 3    431194.180 2  22248411.655    22248413.430    22248411.655
  -8558527.345 3  -6668976.480 2  22323591.773    22323593.547    22323591.773
  -4713178.783 3  -3672601.878 2  23065078.674    23065082.623    23065078.674
   5595925.671 3   4360460.747 2  21482106.532    21482109.680    21482106.532
  -2627161.418 3  -2047137.045 2  21003341.062    21003344.697    21003341.062
   7295522.100 3   5684824.449 2  24485122.243    24485123.731    24485122.243
   8794185.010 3   6839917.176 2  24273595.779    24273601.165    24273595.779
   1769944.219 3   1376623.874 2  19675262.416    19675265.739    19675262.416
  -7168199.137 3  -5575261.545 2  21120877.357    21120879.534    21120877.357
 03  9 24 19 42  0.0000000  0 12G 5G16G 6G25G21G10G30G17G24R17R18R 3
   8614655.732 3   6712715.600 2  24286521.608    24286527.846    24286521.608
  -8577927.789 3  -6684094.172 2  23450487.321    23450488.838    23450487.321
   -917481.849 3   -714919.804 2  20370143.586    20370146.563    20370143.586
    613342.191 3    477929.396 2  22259824.831    22259826.920    22259824.831
  -8746803.171 3  -6815684.778 2  22287763.986    22287765.789    22287763.986
  -4784825.127 3  -3728430.076 2  23051444.553    23051449.819    23051444.553
   5764855.419 3   4492094.249 2  21514252.828    21514256.348    21514252.828
  -2646304.235 3  -2062053.495 2  20999698.164    20999701.713    20999698.164
   7493679.278 3   5839232.712 2  24522828.503    24522831.422    24522828.503
   9011576.209 3   7008999.153 2  24314206.244    24314210.942    24314206.244
   1847508.650 3   1436951.760 2  19689727.188    19689730.224    19689727.188
  -7290911.679 3  -5670704.589 2  21098009.720    21098012.069    21098009.720
 03  9 24 19 42 30.0000000  0 12G 5G16G 6G25G21G10G30G17G24R17R18R 3
   8723781.746 3   6797748.813 2  24307290.118    24307292.780    24307290.118
  -8675524.246 3  -6760143.304 2  23431914.318    23431917.266    23431914.318
   -912262.895 3   -710853.086 2  20371136.731    20371139.679    20371136.731
    644131.187 3    501920.840 2  22265683.796    22265685.570    22265683.796
  -8840478.256 3  -6888678.295 2  22269938.066    22269939.897    22269938.066
  -4819779.454 3  -3755667.179 2  23044794.045    23044796.707    23044794.045
   5849844.176 3   4558319.224 2  21530426.059    21530429.293    21530426.059
  -2655052.363 3  -2068870.203 2  20998033.273    20998037.079    20998033.273
   7593020.772 3   5916641.700 2  24541732.270    24541735.676    24541732.270
   9120287.449 3   7093552.294 2  24334515.277    24334519.459    24334515.277
   1886876.924 3   1467571.534 2  19697068.713    19697071.635    19697068.713
  -7351182.276 3  -5717581.701 2  21086778.171    21086780.691    21086778.171
 03  9 24 19 43  0.0000000  0 12G 5G16G 6G25G21G10G30G17G24R17R18R 3
   8833017.056 3   6882867.231 2  24328076.500    24328080.105    24328076.500
  -8772963.658 3  -6836070.065 2  23413373.640    23413375.099    23413373.640
   -906670.721 3   -706495.548 2  20372201.018    20372203.880    20372201.018
    675449.103 3    526324.433 2  22271643.080    22271645.599    22271643.080
  -8933845.270 3  -6961431.746 2  22252170.873    22252172.762    22252170.873
  -4854155.307 3  -3782453.508 2  23038251.257    23038255.521    23038251.257
   5935176.800 3   4624812.150 2  21546664.276    21546667.567    21546664.276
  -2663254.897 3  -2075261.766 2  20996472.420    20996476.112    20996472.420
   7692531.215 3   5994182.320 2  24560669.763    24560672.281    24560669.763
   9229004.665 3   7178110.100 2  24354823.858    24354828.040    24354823.858
   1926630.964 3   1498491.360 2  19704482.027    19704484.891    19704482.027
  -7410727.950 3  -5763894.965 2  21075681.504    21075684.025    21075681.504
 03  9 24 19 43 30.0000000  0 12G 5G16G 6G25G21G10G30G17G24R17R18R 3
   8942354.168 3   6968064.909 2  24348881.426    24348886.234    24348881.426
  -8870249.559 3  -6911877.236 2  23394860.369    23394861.399    23394860.369
   -900711.451 3   -701851.965 2  20373334.981    20373337.700    20373334.981
    707288.827 3    551134.609 2  22277701.453    22277704.773    22277701.453
  -9026907.921 3  -7033948.029 2  22234461.824    22234463.999    22234461.824
  -4887956.999 3  -3808792.455 2  23031819.979    23031822.869    23031819.979
   6020845.872 3   4691567.216 2  21562966.629    21562969.405    21562966.629
  -2670917.778 3  -2081232.827 2  20995013.984    20995017.648    20995013.984
   7792202.482 3   6071848.233 2  24579636.634    24579638.981    24579636.634
   9337721.226 3   7262667.382 2  24375133.816    24375138.800    24375133.816
   1966763.808 3   1529705.783 2  19711965.947    19711968.984    19711965.947
  -7469552.860 3  -5809647.630 2  21064719.320    21064721.955    21064719.320
 03  9 24 19 44  0.0000000  0 12G 5G16G 6G25G21G10G30G17G24R17R18R 3
   9051807.592 3   7053353.261 2  24369710.093    24369714.528    24369710.093
  -8967363.982 3  -6987550.778 2  23376379.407    23376383.099    23376379.407
   -894369.055 3   -696909.827 2  20374541.839    20374544.701    20374541.839
    739665.196 3    576362.951 2  22283863.218    22283865.707    22283863.218
  -9119648.222 3  -7106213.137 2  22216813.644    22216815.619    22216813.644
  -4921166.688 3  -3834670.074 2  23025499.465    23025502.842    23025499.465
   6106866.103 3   4758595.940 2  21579335.677    21579338.596    21579335.677
  -2678024.689 3  -2086770.660 2  20993661.809    20993665.673    20993661.809
   7892048.356 3   6149650.200 2  24598637.400    24598637.056    24598637.400
   9446453.694 3   7347237.046 2  24395443.472    24395449.603    24395443.472
   2007292.567 3   1561228.150 2  19719523.869    19719526.962    19719523.869
  -7527636.383 3  -5854823.651 2  21053896.148    21053897.122    21053896.148
 03  9 24 19 44 30.0000000  0 12G 5G16G 6G25G21G10G30G17G24R17R18R 3
   9161361.399 3   7138719.828 2  24390556.549    24390559.869    24390556.549
  -9064319.538 3  -7063100.518 2  23357929.252    23357931.084    23357929.252
   -887658.430 3   -691680.756 2  20375818.756    20375821.447    20375818.756
    772562.094 3    601996.911 2  22290123.478    22290125.882    22290123.478
  -9212078.301 3  -7178236.508 2  22199224.922    22199226.868    22199224.922
  -4953797.381 3  -3860096.549 2  23019289.725    23019293.274    23019289.725
   6193221.357 3   4825885.730 2  21595768.533    21595771.366    21595768.533
  -2684590.462 3  -2091886.836 2  20992412.402    20992416.008    20992412.402
   7992051.913 3   6227575.048 2  24617666.385    24617667.587    24617666.385
   9555185.067 3   7431805.862 2  24415756.662    24415762.449    24415756.662
   2048201.223 3   1593045.996 2  19727152.618    19727155.540    19727152.618
  -7584990.821 3  -5899432.617 2  21043207.192    21043210.114    21043207.192
 03  9 24 19 45  0.0000000  0 12G 5G16G 6G25G21G10G30G17G24R17R18R 3
   9271022.562 3   7224170.039 2  24411425.892    24411429.985    24411425.892
  -9161105.560 3  -7138518.167 2  23339512.238    23339512.696    23339512.238
   -880571.183 3   -686158.229 2  20377167.531    20377170.421    20377167.531
    805987.232 3    628042.475 2  22296483.773    22296486.263    22296483.773
  -9304187.500 3  -7250009.842 2  22181696.832    22181698.607    22181696.832
  -4985838.724 3  -3885063.750 2  23013192.451    23013196.772    23013192.451
   6279918.580 3   4893441.970 2  21612266.488    21612269.607    21612266.488
  -2690606.311 3  -2096574.491 2  20991267.864    20991271.299    20991267.864
   8092219.528 3   6305627.716 2  24636727.963    24636729.566    24636727.963
   9663924.953 3   7516381.325 2  24436069.938    24436075.094    24436069.938
   2089496.331 3   1625164.417 2  19734853.357    19734856.394    19734853.357
  -7641604.698 3  -5943465.599 2  21032657.345    21032659.694    21032657.345
 03  9 24 19 45 30.0000000  0 11G16G 6G25G21G10G30G17G24R17R18R 3
  -9257722.967 3  -7213804.437 2  23321125.726    23321127.529    23321125.726
   -873110.533 3   -680344.727 2  20378587.238    20378590.157    20378587.238
    839936.333 3    654496.324 2  22302944.121    22302946.954    22302944.121
  -9395976.787 3  -7321533.909 2  22164229.847    22164232.051    22164229.847
  -5017291.991 3  -3909572.752 2  23007207.723    23007211.672    23007207.723
   6366953.381 3   4961261.267 2  21628828.548    21628831.123    21628828.548
  -2696075.419 3  -2100836.113 2  20990227.053    20990230.631    20990227.053
   8192546.062 3   6383804.250 2  24655819.233    24655822.181    24655819.233
   9772668.797 3   7600959.847 2  24456385.403    24456390.846    24456385.403
   2131175.952 3   1657581.912 2  19742625.526    19742628.620    19742625.526
  -7697478.213 3  -5986922.735 2  21022245.347    21022246.722    21022245.347
 03  9 24 19 46  0.0000000  0 12G 5G16G 6G25G21G10G30G17G24R17R18R 3
   9490651.789 3   7395309.617 2  24453219.064    24453223.729    24453219.064
  -9354169.721 3  -7288957.712 2  23302773.264    23302774.151    23302773.264
   -865276.974 3   -674240.651 2  20380077.762    20380080.881    20380077.762
    874408.157 3    681357.486 2  22309503.641    22309506.102    22309503.641
  -9487443.840 3  -7392806.881 2  22146823.872    22146826.247    22146823.872
  -5048155.508 3  -3933622.197 2  23001334.192    23001338.113    23001334.192
   6454324.182 3   5029342.392 2  21645454.534    21645457.825    21645454.534
  -2700997.796 3  -2104671.725 2  20989290.405    20989293.725    20989290.405
   8293029.122 3   6462102.715 2  24674941.581    24674945.874    24674941.581
   9881414.908 3   7685540.182 2  24476699.530    24476705.030    24476699.530
   2173239.039 3   1690297.645 2  19750469.630    19750472.781    19750469.630
  -7752608.416 3  -6029801.741 2  21011971.197    21011974.004    21011971.197
 03  9 24 19 46 30.0000000  0 11G16G 6G25G21G10G30G17G24R17R18R 3
  -9450445.368 3  -7363977.655 2  23284451.822    23284452.967    23284451.822
   -857072.200 3   -667847.317 2  20381638.981    20381642.157    20381638.981
    909399.711 3    708623.648 2  22316162.562    22316164.651    22316162.562
  -9578588.097 3  -7463828.322 2  22129479.491    22129482.038    22129479.491
  -5078429.203 3  -3957212.044 2  22995572.841    22995576.848    22995572.841
   6542027.913 3   5097682.941 2  21662144.104    21662146.938    21662144.104
  -2705374.967 3  -2108082.496 2  20988457.403    20988460.837    20988457.403
   8393665.110 3   6540520.406 2  24694091.209    24694094.100    24694091.209
   9990162.505 3   7770121.602 2  24497015.318    24497019.615    24497015.318
   2215682.544 3   1723309.261 2  19758384.606    19758387.815    19758384.606
  -7806993.872 3  -6072101.494 2  21001837.144    21001838.633    21001837.144
 03  9 24 19 47  0.0000000  0 12G 5G16G 6G25G21G10G30G17G24R17R18R 3
   9710673.585 3   7566755.017 1  24495088.602    24495096.415    24495088.602
  -9546549.902 3  -7438864.253 2  23266164.487    23266167.206    23266164.487
   -848498.418 3   -661166.445 2  20383270.612    20383273.617    20383270.612
    944907.759 3    736292.257 2  22322919.688    22322922.035    22322919.688
  -9669409.613 3  -7534598.274 2  22112197.000    22112199.032    22112197.000
  -5108113.704 3  -3980342.802 2  22989924.756    22989927.188    22989924.756
   6630060.845 3   5166280.000 2  21678896.340    21678899.030    21678896.340
  -2709209.262 3  -2111070.225 2  20987727.533    20987731.167    20987727.533
   8494449.800 3   6619053.885 2  24713269.178    24713273.042    24713269.178
  10098908.757 3   7854702.029 2  24517328.259    24517333.645    24517328.259
   2258504.330 3   1756615.108 2  19766370.342    19766373.149    19766370.342
  -7860634.080 3  -6113821.611 2  20991841.155    20991842.989    20991841.155
 03  9 24 19 47 30.0000000  0 12G 5G16G 6G25G21G10G30G17G24R17R18R 3
   9820829.397 3   7652590.673 2  24516049.862    24516054.813    24516049.862
  -9642476.750 3  -7513612.403 2  23247910.035    23247911.838    23247910.035
   -839551.278 3   -654194.646 2  20384973.437    20384976.070    20384973.437
    980935.141 3    764365.555 2  22329775.163    22329777.824    22329775.163
  -9759901.473 3  -7605111.368 2  22094977.138    22094979.313    22094977.138
  -5137202.838 3  -4003009.615 2  22984389.638    22984393.587    22984389.638
   6718426.096 3   5235136.025 2  21695711.560    21695714.909    21695711.560
  -2712495.886 3  -2113631.217 2  20987102.066    20987105.901    20987102.066
   8595385.433 3   6697704.998 2  24732475.410    24732480.418    24732475.410
  10207657.243 2   7939284.179 2  24537643.038    24537650.830    24537643.038
   2301707.652 3   1790217.697 2  19774426.851    19774429.601    19774426.851
  -7913521.518 3  -6154956.245 2  20981985.475    20981987.251    20981985.475
 03  9 24 19 48  0.0000000  0 11G16G 6G25G21G10G30G17G24R17R18R 3
  -9738222.197 3  -7588219.235 2  23229689.801    23229691.403    23229689.801
   -830229.652 3   -646931.028 2  20386747.267    20386750.129    20386747.267
   1017481.717 3    792843.413 2  22336729.718    22336732.179    22336729.718
  -9850060.594 3  -7675365.201 2  22077820.425    22077822.228    22077820.425
  -5165693.753 3  -4025210.276 2  22978967.369    22978970.231    22978967.369
   6807123.413 3   5304250.807 2  21712590.078    21712593.226    21712590.078
  -2715234.032 3  -2115764.815 2  20986580.975    20986584.810    20986580.975
   8696471.240 3   6776473.154 2  24751712.611    24751716.647    24751712.611
  10316408.185 3   8023868.260 2  24557960.701    24557965.112    24557960.701
   2345292.207 3   1824116.803 2  19782554.660    19782557.525    19782554.660
  -7965651.928 3  -6195502.088 2  20972271.242    20972272.904    20972271.242
 03  9 24 19 48 30.0000000  0 12G 5G16G 6G25G21G10G30G17G24R17R18R 3
  10041427.084 3   7824484.894 2  24558029.330    24558035.798    24558029.330
  -9833789.163 3  -7662686.952 2  23211504.215    23211506.018    23211504.215
   -820538.689 3   -639379.633 2  20388591.460    20388593.978    20388591.460
   1054541.831 3    821721.422 2  22343782.188    22343784.335    22343782.188
  -9939889.449 3  -7745361.681 2  22060726.497    22060727.928    22060726.497
  -5193589.690 3  -4046947.305 2  22973659.163    22973662.655    22973659.163
   6896146.405 3   5373619.358 2  21729530.672    21729534.421    21729530.672
  -2717428.490 3  -2117474.772 2  20986163.372    20986167.264    20986163.372
   8797700.061 3   6855352.788 2  24770974.799    24770979.264    24770974.799
  10425156.962 2   8108450.582 2  24578272.086    24578277.987    24578272.086
   2389253.715 3   1858309.093 2  19790752.764    19790755.685    19790752.764
  -8017027.910 3  -6235461.140 2  20962696.784    20962698.847    20962696.784
 03  9 24 19 49  0.0000000  0 12G 5G16G 6G25G21G10G30G17G24R17R18R 3
  10151863.482 3   7910539.181 2  24579045.553    24579051.649    24579045.553
  -9929173.356 3  -7737012.260 2  23193353.140    23193353.484    23193353.140
   -810476.115 3   -631538.658 2  20390506.387    20390508.791    20390506.387
   1092116.413 3    851000.318 2  22350932.251    22350934.684    22350932.251
 -10029383.483 3  -7815097.248 2  22043696.509    22043697.855    22043696.509
  -5220886.746 3  -4068217.705 2  22968464.700    22968467.018    22968464.700
   6985496.038 3   5443242.427 2  21746533.686    21746537.235    21746533.686
  -2719077.002 3  -2118759.306 2  20985849.901    20985853.536    20985849.901
   8899072.230 3   6934344.019 2  24790268.178    24790272.757    24790268.178
  10533904.724 2   8193032.148 2  24598587.662    24598592.876    24598587.662
   2433594.084 3   1892796.050 2  19799021.335    19799024.200    19799021.335
  -8067644.119 3  -6274829.259 2  20953264.507    20953266.283    20953264.507
 03  9 24 19 49 30.0000000  0 12G 5G16G 6G25G21G10G30G17G24R17R18R 3
  10262389.014 3   7996662.891 2  24600075.510    24600078.658    24600075.510
 -10024373.852 3  -7811194.450 2  23175237.129    23175238.904    23175237.129
   -800043.734 3   -623409.528 2  20392491.646    20392494.021    20392491.646
   1130202.582 3    880677.865 2  22358179.554    22358182.444    22358179.554
 -10118542.279 3  -7884571.599 2  22026729.532    22026731.793    22026729.532
  -5247584.720 3  -4089021.299 2  22963384.305    22963388.341    22963384.305
   7075169.210 3   5513117.618 2  21763597.940    21763601.145    21763597.940
  -2720181.177 3  -2119619.691 2  20985639.900    20985643.191    20985639.900
   9000584.191 3   7013444.274 2  24809585.607    24809586.523    24809585.607
  10642651.341 2   8277612.864 2  24618904.136    24618909.694    24618904.136
   2478310.454 3   1927575.460 2  19807360.241    19807362.934    19807360.241
  -8117499.044 3  -6313605.272 2  20943973.695    20943975.700    20943973.695
 03  9 24 19 50 30.0000000  0 11G 5G16G 6G25G21G10G30G17G24R18R 3
  10483708.057 3   8169119.246 2  24642192.594    24642196.057    24642192.594
 -10214208.486 3  -7959117.490 2  23139112.439    23139114.443    23139112.439
   -778063.878 3   -606282.359 2  20396674.249    20396676.825    20396674.249
   1207909.823 3    941228.987 2  22372967.006    22372969.611    22372967.006
 -10295838.123 3  -8022724.152 2  21992991.198    21992993.488    21992991.198
  -5299171.279 3  -4129218.540 2  22953568.281    22953570.857    22953568.281
   7255486.762 3   5653624.794 2  21797911.205    21797914.640    21797911.205
  -2720750.649 3  -2120063.421 2  20985531.218    20985534.623    20985531.218
   9204025.444 3   7171969.875 2  24848299.392    24848298.648    24848299.392
   2568878.266 3   1998017.105 2  19824249.354    19824252.276    19824249.354
  -8214908.677 3  -6389368.260 2  20925820.809    20925823.502    20925820.809
 03  9 24 19 51  0.0000000  0 11G 5G16G 6G25G21G10G30G17G24R18R 3
  10594491.502 3   8255443.930 2  24663273.464    24663278.186    24663273.464
 -10308845.547 3  -8032860.628 2  23121103.761    23121104.477    23121103.761
   -766523.865 3   -597290.139 2  20398870.251    20398872.712    20398870.251
   1247521.343 3    972095.110 2  22380504.690    22380507.695    22380504.690
 -10383978.133 3  -8091404.675 2  21976219.059    21976220.719    21976219.059
  -5324064.043 3  -4148615.466 2  22948831.017    22948833.735    22948831.017
   7346121.029 3   5724248.862 2  21815158.704    21815161.938    21815158.704
  -2720223.283 3  -2119652.471 2  20985631.413    20985635.305    20985631.413
   9305943.567 3   7251386.606 2  24867689.270    24867691.988    24867689.270
   2614720.347 3   2033672.055 2  19832798.015    19832800.880    19832798.015
  -8262465.319 3  -6426356.724 2  20916958.949    20916961.241    20916958.949
 03  9 24 19 51 30.0000000  0 11G 5G16G 6G25G21G10G30G17G24R18R 3
  10705360.263 3   8341835.119 2  24684371.206    24684380.020    24684371.206
 -10403288.058 3  -8106452.151 2  23103131.665    23103133.440    23103131.665
   -754612.928 3   -588008.883 2  20401136.855    20401139.373    20401136.855
   1287640.689 3   1003356.943 2  22388139.588    22388141.334    22388139.588
 -10471772.068 3  -8159815.509 2  21959512.551    21959514.325    21959512.551
  -5348350.072 3  -4167539.617 2  22944208.362    22944213.427    22944208.362
   7437074.770 3   5795121.891 2  21832466.180    21832469.757    21832466.180
  -2719150.132 3  -2118816.239 2  20985835.485    20985839.434    20985835.485
   9407994.888 3   7330907.045 2  24887112.150    24887117.358    24887112.150
   2660937.699 3   2069618.883 2  19841416.834    19841419.241    19841416.834
  -8309248.751 3  -6462743.801 2  20908240.677    20908242.968    20908240.677
 03  9 24 19 52 30.0000000  0 10G16G 6G25G21G10G30G17G24R18R 3
 -10591579.544 3  -8253172.717 2  23067300.698    23067301.958    23067300.698
   -729677.357 3   -568578.565 2  20405882.013    20405884.303    20405882.013
   1369399.338 3   1067064.996 2  22403697.387    22403699.705    22403697.387
 -10646311.635 3  -8295820.334 2  21926298.637    21926300.755    21926298.637
  -5395094.293 3  -4203963.633 2  22935314.167    22935316.800    22935314.167
   7619936.429 3   5937611.450 2  21867263.413    21867266.647    21867263.413
  -2715365.656 3  -2115867.264 2  20986555.875    20986559.538    20986555.875
   9612491.609 3   7490255.123 1  24926029.857    24926028.283    24926029.857
   2754501.269 3   2142390.553 2  19858864.690    19858867.039    19858864.690
  -8400483.158 3  -6533703.824 2  20891239.241    20891240.960    20891239.241
 03  9 24 19 53  0.0000000  0 10G16G 6G25G21G10G30G17G24R18R 3
 -10685430.716 3  -8326303.488 2  23049442.006    23049444.266    23049442.006
   -716659.839 3   -558435.034 2  20408359.150    20408361.669    20408359.150
   1411028.710 3   1099503.485 2  22411619.285    22411622.147    22411619.285
 -10733059.797 3  -8363416.286 2  21909791.073    21909793.076    21909791.073
  -5417556.375 3  -4221466.532 2  22931039.720    22931041.438    22931039.720
   7711834.345 3   6009220.209 2  21884751.300    21884754.763    21884751.300
  -2712661.643 3  -2113760.236 2  20987070.538    20987074.173    20987070.538
   9714925.698 3   7570073.834 2  24945519.909    24945524.745    24945519.909
   2801837.114 3   2179207.322 2  19867691.764    19867694.456    19867691.764
  -8444936.352 3  -6568278.506 2  20882955.509    20882957.227    20882955.509
 03  9 24 19 53 30.0000000  0 11G 5G16G 6G25G21G10G30G17G24R18R 3
  11149651.415 3   8688035.782 2  24768917.575    24768923.842    24768917.575
 -10779077.327 3  -8399274.846 2  23031621.795    23031623.741    23031621.795
   -703270.562 3   -548001.834 2  20410907.106    20410909.539    20410907.106
   1453161.683 3   1132334.374 2  22419636.991    22419639.539    22419636.991
 -10819451.625 3  -8430734.549 2  21893351.469    21893352.699    21893351.469
  -5439404.565 3  -4238491.068 2  22926882.067    22926884.957    22926882.067
   7804047.208 3   6081074.369 2  21902298.840    21902301.674    21902298.840
  -2709411.136 3  -2111227.360 2  20987689.067    20987692.730    20987689.067
   9817486.339 3   7649991.186 2  24965034.917    24965037.293    24965034.917
   2849548.259 3   2216315.982 2  19876588.907    19876592.058    19876588.907
  -8488604.624 3  -6602242.678 2  20874817.988    20874819.649    20874817.988
 03  9 24 19 54  0.0000000  0 11G 5G16G 6G25G21G10G30G17G24R18R 3
  11260912.551 3   8774732.746 1  24790088.548    24790093.413    24790088.548
 -10872526.731 3  -8472092.535 2  23013838.820    23013840.422    23013838.820
   -689519.628 3   -537286.823 2  20413523.974    20413526.207    20413523.974
   1495786.725 3   1165548.691 2  22427747.936    22427751.256    22427747.936
 -10905495.359 3  -8497781.589 2  21876977.817    21876979.620    21876977.817
  -5460647.110 3  -4255043.700 2  22922838.539    22922843.147    22922838.539
   7896563.640 3   6153165.085 2  21919903.890    21919907.468    21919903.890
  -2705624.408 3  -2108276.655 2  20988409.788    20988413.165    20988409.788
   9920161.671 3   7729997.891 2  24984573.981    24984577.644    24984573.981
   2897622.518 3   2253707.067 2  19885553.916    19885556.723    19885553.916
  -8531495.604 3  -6635602.288 2  20866825.492    20866826.581    20866825.492
 03  9 24 19 54 30.0000000  0 11G 5G16G 6G25G21G10G30G17G24R18R 3
  11372246.334 3   8861486.323 1  24811276.547    24811281.326    24811276.547
 -10965772.355 3  -8544751.443 2  22996094.445    22996096.563    22996094.445
   -675402.931 3   -526286.799 2  20416210.259    20416212.577    20416210.259
   1538906.714 3   1199148.675 2  22435953.036    22435955.411    22435953.036
 -10991184.303 3  -8564552.159 2  21860671.512    21860673.487    21860671.512
  -5481278.893 3  -4271101.020 2  22918914.448    22918912.473    22918914.448
   7989386.245 3   6225494.353 2  21937567.013    21937570.876    21937567.013
  -2701297.594 3  -2104905.101 2  20989233.015    20989236.478    20989233.015
  10022954.261 3   7810096.028 1  25004133.349    25004135.495    25004133.349
   2946065.785 3   2291385.153 2  19894587.543    19894590.637    19894587.543
  -8573602.514 3  -6668352.074 2  20858978.131    20858980.137    20858978.131
 03  9 24 19 55  0.0000000  0 11G 5G16G 6G25G21G10G30G17G24R18R 3
  11483663.846 3   8948305.105 2  24832477.628    24832482.322    24832477.628
 -11058799.256 3  -8617239.912 2  22978391.964    22978394.482    22978391.964
   -660907.973 3   -514992.019 2  20418968.599    20418970.746    20418968.599
   1582532.945 3   1233143.160 2  22444254.977    22444257.180    22444254.977
 -11076503.486 3  -8631034.607 2  21844435.939    21844437.799    21844435.939
  -5501285.645 3  -4286605.575 2  22915106.749    22915105.690    22915106.749
   8082526.362 3   6298071.035 2  21955292.037    21955295.014    21955292.037
  -2696417.742 3  -2101102.604 2  20990161.673    20990165.050    20990161.673
  10125874.357 3   7890293.442 2  25023721.461    25023722.835    25023721.461
   2994889.523 3   2329359.179 2  19903692.441    19903695.306    19903692.441
  -8614909.993 3  -6700480.086 2  20851280.545    20851281.978    20851280.545
 03  9 24 19 55 30.0000000  0 11G 5G16G 6G25G21G10G30G17G24R18R 3
  11595146.072 3   9035174.302 1  24853691.881    24853697.920    24853691.881
 -11151623.016 3  -8689570.096 2  22960728.091    22960730.695    22960728.091
   -646052.499 3   -503416.314 2  20421795.279    20421797.540    20421795.279
   1626646.109 3   1267517.055 2  22452649.694    22452652.413    22452649.694
 -11161468.782 3  -8697241.321 2  21828267.656    21828269.430    21828267.656
  -5520683.383 3  -4301573.243 2  22911415.205    22911417.580    22911415.205
   8175964.741 3   6370880.128 2  21973072.557    21973075.677    21973072.557
  -2691003.187 3  -2096883.460 2  20991191.934    20991195.225    20991191.934
  10228902.529 3   7970575.118 2  25043326.141    25043329.775    25043326.141
   3044073.764 3   2367613.596 2  19912864.618    19912867.310    19912864.618
  -8655433.763 3  -6731998.538 2  20843728.537    20843730.141    20843728.537
 03  9 24 19 56  0.0000000  0 10G16G 6G25G21G10G30G17G24R18R 3
 -11244235.218 3  -8761735.438 2  22943104.365    22943106.197    22943104.365
   -630830.607 3   -491555.098 2  20424691.974    20424694.292    20424691.974
   1671250.477 3   1302273.719 2  22461137.926    22461139.815    22461137.926
 -11246071.809 3  -8763165.731 2  21812167.878    21812169.852    21812167.878
  -5539465.081 3  -4316052.900 2  22907839.944    22907843.779    22907839.944
   8269706.000 3   6443925.228 2  21990910.733    21990914.225    21990910.733
  -2685048.006 3  -2092243.049 2  20992325.259    20992328.464    20992325.259
  10332042.707 3   8050944.008 2  25062951.430    25062953.863    25062951.430
   3093624.807 3   2406153.271 2  19922104.791    19922108.114    19922104.791
  -8695165.612 3  -6762901.062 2  20836324.581    20836326.242    20836324.581
 03  9 24 19 56 30.0000000  0 11G 5G16G 6G25G21G10G30G17G24R18R 3
  11818311.677 3   9209069.577 2  24896160.523    24896167.964    24896160.523
 -11336638.878 3  -8833738.248 2  22925520.715    22925522.633    22925520.715
   -615248.108 3   -479412.885 2  20427657.111    20427659.544    20427657.111
   1716339.393 3   1337407.935 2  22469718.384    22469720.358    22469718.384
 -11330315.976 3  -8828810.492 2  21796136.760    21796138.420    21796136.760
  -5557635.229 3  -4330054.996 2  22904383.393    22904387.171    22904383.393
   8363742.966 3   6517200.744 2  22008805.484    22008808.489    22008805.484
  -2678558.267 3  -2087186.099 2  20993560.036    20993563.527    20993560.036
  10435287.413 3   8131394.398 2  25082599.364    25082601.396    25082599.364
   3143536.808 3   2444973.712 2  19931412.538    19931415.402    19931412.538
  -8734108.479 3  -6793189.943 2  20829067.255    20829069.661    20829067.255
 03  9 24 19 57  0.0000000  0 11G 5G16G 6G25G21G10G30G17G24R18R 3
  11929996.793 3   9296096.834 1  24917411.664    24917420.393    24917411.664
 -11428821.953 3  -8905569.181 2  22907979.523    22907980.382    22907979.523
   -599295.138 3   -466981.993 2  20430692.886    20430695.318    20430692.886
   1761921.185 3   1372926.229 2  22478391.720    22478394.210    22478391.720
 -11414189.032 3  -8894166.078 2  21780176.168    21780177.771    21780176.168
  -5575182.557 3                  22901044.243                    22901044.243
   8458084.111 3   6590713.307 2  22026757.958    22026761.106    22026757.958
  -2671523.949 3  -2081704.802 2  20994898.824    20994902.230    20994898.824
  10538644.791 3   8211932.508 2  25102268.013    25102271.018    25102268.013
   3193820.291 3   2484083.086 2  19940789.068    19940792.333    19940789.068
  -8772250.489 3  -6822855.919 2  20821959.323    20821961.844    20821959.323
 03  9 24 19 57 30.0000000  0 10G16G 6G25G21G10G30G17G24R18R 3
 -11520785.478 3  -8977229.045 2  22890478.618    22890480.793    22890478.618
   -582975.430 3   -454265.334 2  20433798.336    20433800.768    20433798.336
   1807990.616 3   1408824.480 2  22487158.798    22487161.516    22487158.798
 -11497692.599 3  -8959233.769 2  21764286.217    21764287.562    21764286.217
  -5592109.468 3  -4356606.143 2  22897822.846    22897824.850    22897822.846
   8552724.492 3   6664459.030 2  22044767.908    22044771.514    22044767.908
  -2663948.978 3  -2075802.216 2  20996340.387    20996343.907    20996340.387
  10642109.546 3   8292554.337 1  25121956.398    25121962.064    25121956.398
   3244469.705 3   2523477.058 2  19950234.460    19950237.439    19950234.460
  -8809592.713 3  -6851899.837 2  20815000.610    20815003.246    20815000.610
 03  9 24 19 58  0.0000000  0 11G 5G16G 6G25G21G10G30G17G24R18R 3
  12153558.017 3   9470300.359 1  24959954.496    24959959.561    24959954.496
 -11612532.956 3  -9048720.550 2  22873020.299    22873021.730    22873020.299
   -566294.992 3   -441267.599 2  20436972.459    20436975.207    20436972.459
   1854540.392 3   1445097.033 2  22496016.456    22496019.690    22496016.456
 -11580830.330 3  -9024016.377 2  21748465.342    21748467.689    21748465.342
  -5608420.484 3  -4369160.068 2  22894719.283    22894722.403    22894719.283
   8647656.675 3   6738432.123 2  22062832.946    22062835.636    22062832.946
  -2655839.792 3  -2069483.349 2  20997883.666    20997886.785    20997883.666
  10745673.843 3   8373253.716 1  25141662.183    25141666.189    25141662.183
   3295477.525 3   2563149.800 2  19959746.522    19959749.558    19959746.522
  -8846139.320 3  -6880324.950 2  20808189.874    20808192.739    20808189.874
 03  9 24 19 58 30.0000000  0 11G 5G16G 6G25G21G10G30G17G24R18R 3
  12265430.889 3   9557473.891 1  24981243.356    24981244.386    24981243.356
 -11704056.902 3  -9120037.882 2  22855603.368    22855605.257    22855603.368
   -549248.656 3   -427984.728 2  20440216.001    20440218.805    20440216.001
   1901574.403 3   1481746.913 2  22504967.300    22504969.619    22504967.300
 -11663594.752 3  -9088508.089 2  21732715.667    21732717.757    21732715.667
  -5624109.034 3  -4381228.955 2  22891733.336    22891736.942    22891733.336
   8742884.554 3   6812635.637 2  22080953.608    22080957.014    22080953.608
  -2647191.169 3  -2062744.150 2  20999529.187    20999532.421    20999529.187
  10849340.962 3   8454033.238 1  25161391.334    25161394.282    25161391.334
   3346850.189 3   2603106.307 2  19969326.632    19969329.898    19969326.632
  -8881882.436 3  -6908125.123 2  20801529.529    20801531.362    20801529.529
 03  9 24 19 59  0.0000000  0 11G 5G16G 6G25G21G10G30G17G24R18R 3
  12377363.279 3   9644693.915 1  25002542.403    25002551.189    25002542.403
 -11795356.633 3  -9191180.508 2  22838229.997    22838231.571    22838229.997
   -531838.555 3   -414418.412 2  20443528.880    20443531.513    20443528.880
   1949089.215 3   1518771.427 2  22514008.552    22514011.070    22514008.552
 -11745985.785 3  -9152708.866 2  21717037.285    21717039.203    21717037.285
  -5639175.826 3  -4392813.378 2  22888867.250    22888870.255    22888867.250
   8838404.576 3   6887066.773 2  22099130.537    22099133.542    22099130.537
  -2638005.481 3  -2055586.469 2  21001277.197    21001280.316    21001277.197
  10953107.160 3   8534889.949 2  25181136.038    25181143.020    25181136.038
   3398585.576 3   2643344.946 2  19978974.392    19978977.485    19978974.392
  -8916822.049 3  -6935300.356 2  20795018.769    20795020.144    20795018.769
